Boletins

Boletim de eventos Sísmicos registrados pelo LabSis na região Nordeste em Outubro de 2022 com magnitude maior ou igual a 1.5

 

Data Hora UTC Magnitude Coordenadas Local
2022.10.30 04:08:00 2.2* -4.57 S; -37.86 W Aracati CE
2022.10.30 00:16:00 1.7* -3.12 S; -40.60 W Martinópole CE
2022.10.28 17:44:00 1.7* -11.26 S; -40.53 W Jacobina BA
2022.10.28 01:14:35 1.5* -9.43 S; -36.24 W Viçosa AL
2022.10.25 14:24:15 1.6* -8.84 S; -36.33 W São João PE
2022.10.24 15:48:00 2.8* -5.70 S; -38.74 W Jaguaretama CE
2022.10.24 15:00:49 2.3* -9.69 S; -36.75 W Arapiraca AL
2022.10.23 06:12:05 1.7* -5.67 S; -35.56 W Taipu RN
2022.10.22 03:43:00 1.8* -9.88 S; -40.01 W Jaguarari BA
2022.10.21 14:07:00 1.5* -9.33 S; -37.21 W Santana do Ipanema AL
2022.10.19 21:55:00 2.9* -14.00 S; -40.10 W Jequié BA
2022.10.18 07:26:38 1.6* -5.53 S; -36.14 W Pedra Preta RN
2022.10.18 02:48:00 1.6* -3.97 S; -39.86 W Irauçuba CE
2022.10.17 20:44:01 2.6* -5.55 S; -36.01 W Jardim de Angicos RN
2022.10.17 15:46:00 1.8* -5.42 S; -36.11 W Jandaíra RN
2022.10.16 15:39:00 1.5* -5.35 S; -36.05 W Jandaíra RN
2022.10.16 14:24:21 2.5* -5.35 S; -36.05 W Jandaíra RN
2022.10.16 14:20:00 2.5* -5.35 S; -36.05 W Jandaíra RN
2022.10.12 02:40:00 1.6* -10.16 S; -36.97 W Canhoba SE
2022.10.11 12:44:00 1.5* -5.57 S; -36.09 W Pedra Preta RN
2022.10.11 03:53:00 1.8* -5.50 S; -36.09 W Pedra Preta RN
2022.10.11 03:33:00 1.9* -9.86 S; -39.94 W Jaguarari BA
2022.10.11 01:29:00 1.7* -5.49 S; -36.11 W Jandaíra RN
2022.10.09 06:48:00 1.6* -5.68 S; -35.38 W Ceará Mirim RN
2022.10.08 17:58:54 2.2* -11.24 S; -40.50 W Jacobina BA
2022.10.06 19:28:48 1.7* -11.32 S; -40.45 W Jacobina BA
2022.10.06 17:17:00 1.8* -9.57 S; -39.92 W Curaça BA
2022.10.01 03:37:00 1.9* -9.89 S; -39.92 W Jaguarari BA
2022.10.01 01:16:00 2.2* -12.64 S; -40.49 W Boa Vista do Tupim BA
2022.10.01 01:15:00 1.7* -12.64 S; -40.49 W Boa Vista do Tupim BA

 

 

* Magnitude não revisada/preliminar Última atualização em 31/10/2022 às 09:30 hora local. Obs.: A hora dos tremores está em UTC, são 3 horas a mais da hora local. 

 

 

Boletim de eventos Sísmicos registrados pelo LabSis na região Nordeste em Setembro de 2022 com magnitude maior ou igual a 1.5

 

Data Hora UTC Magnitude Coordenadas Local
2022.09.30 19:37:54 1.9* -10.97 S; -39.29 W Nordestina BA
2022.09.30 19:34:49 2.0* -5.61 S; -36.23 W Lajes RN
2022.09.30 16:08:11 1.5* -14.1 S; -39.83 W Jitaúna BA
2022.09.29 23:04:23 1.7* -11.25 S; -40.51 W Jacobina BA
2022.09.29 19:59:05 1.8* -9.40 S; -35.84 W Messias AL
2022.09.28 18:20:50 2.3 -8.95 S; -35.79 W Colônia Leopoldina AL
2022.09.27 09:34:38 1.6 -11.22 S; -40.50 W Jacobina BA
2022.09.27 02:26:12 1.7* -8.21 S; -35.3 W Vitória de Santo Antão PE
2022.09.26 18:49:51 1.5* -5.96 S; -35.57 W Potengi RN
2022.09.26 18:42:14 2.0* -14.18 S; -39.19 W Ibirapitanga BA
2022.09.26 17:13:30 1.5* -10.85 S; -37.97 W Poço Verde AL
2022.09.26 08:04:01 1.8* -11.28 S; -40.52 W Jacobina BA
2022.09.26 06:12:58 1.8* -4.35 S; -38.20 W Beberibe CE
2022.09.25 14:19:01 1.7* -9.26 S; -40.44 W Petrolina PE
2022.09.25 03:32:41 1.9* -9.84 S; -39.94 W Jaguarari BA
2022.09.23 17:15:56 1.8* -7.76 S; -36.10 W Alcantil PB
2022.09.23 16:01:20 2.0* -14.16 S; -39.79 W Ipiaú BA
2022.09.23 06:58:00 1.7* -9.16 S; -36.19 W Santana do Mundaú AL
2022.09.22 20:53:00 1.8* -12.78 S; -38.29 W Camaçari BA
2022.09.22 18:15:16 2.1* -11.24 S; -40.51 W Jacobina BA
2022.09.21 20:07:30 1.5* -9.56 S; -39.93 W Juazeiro BA
2022.09.21 16:47:38 1.5* -5.10 S; -39.18 W Quixeramobim CE
2022.09.20 19:10:46 2.2* -14.16 S; -39.80 W Ipiaú BA
2022.09.20 11:55:00 1.5* -10.15 S; -36.90 W Amparo de São Francisco SE
2022.09.19 21:59:00 2.0* -9.85 S; -39.91 W Jaguarari BA
2022.09.19 13:27:25 1.5* -7.81 S; -36.01 W Santa Maria do Cambucá PE
2022.09.19 03:43:21 2.1* -9.85 S; -39.90 W Jaguarari BA
2022.09.17 21:45:47 1.6* -9.13 S; -35.55 W Matriz de Camaragibe PE
2022.09.16 18:58:36 1.5* -3.89 S; -40.21 W Forquilha CE
2022.09.16 17:05:18 1.9* -13.72 S; -40.57 W Maracás BA
2022.09.16 16:06:48 1.7* -14.15 S; -39.20 W Ibirapitanga BA
2022.09.16 15:24:59 1.5* -5.80 S; -37.53 W Caraúbas RN
2022.09.16 02:20:45 1.7 -3.55 S; -40.15 W Santana do Acaraú CE
2022.09.15 17:09:00 1.8* -9.69 S; -36.28 W Anadia AL
2022.09.14 15:19:00 1.5* -9.29 S; -40.41 W Petrolina PE
2022.09.13 20:25:00 1.9* -8.69 S; -35.17 W Rio Formoso PE
2022.09.10 19:19:37 1.7* -8.03 S; -35.37 W Glória do Goitá PE
2022.09.10 17:39:08 1.5* -11.27 S; -40.51 W Jacobina BA
2022.09.10 07:55:11 1.6* -3.56 S; -40.21 W Amontada CE
2022.09.09 15:02:20 2.1* -10.55 S; -40.60 W Campo Formoso BA
2022.09.07 08:29:00 2.5* -8.79 S; -40.37 W Lagoa Grande PE
2022.09.06 02:31:00 1.7* -8.28 S; -35.32 W Vitória de Santo Antão PE
2022.09.03 13:14:46 1.7* -7.38 S; -35.80 W Queimadas PB
2022.09.01 15:00:21 1.9* -9.72 S; -36.67 W Arapiraca AL

 

 

* Magnitude não revisada/preliminar Última atualização em 04/10/2022 às 11:00 hora local. Obs.: A hora dos tremores está em UTC, são 3 horas a mais da hora local. 

 

Boletim de eventos Sísmicos registrados pelo LabSis na região Nordeste em Agosto de 2022 com magnitude maior ou igual a 1.5

 

Data Hora UTC Magnitude Coordenadas Local
2022.08.31 16:04:23 2.0 -8.29 S; -36.03 W Caruaru PE
2022.08.31 15:02:49 2.1* -10.86 S; -39.40 W Nordestina BA
2022.08.30 14:11:41 1.5* -8.04 S; -36.98 W Sertânia PE
2022.08.30 12:22:20 1.7* -7.86 S; -36.03 W Santa Maria do Cambucá PE
2022.08.29 11:14:53 1.8* -6.17 S; -37.54 W Belem do Brejo do Cruz PB
2022.08.28 11:50:00 2.0* -4.84 S; -36.06 W Litoral do RN RN
2022.08.27 19:02:48 1.8* -5.84 S; -36.17 W Lajes RN
2022.08.27 06:32:59 1.5* -9.46 S; -36.39 W Mar Vermelho AL
2022.08.27 04:45:00 1.5 -13.08 S; -39.6 W Amargosa BA
2022.08.26 17:55:54 1.9 -11.28 S; -40.52 W Jacobina BA
2022.08.26 15:11:00 1.9* -9.70 S; -36.73 W Craíbas AL
2022.08.26 15:09:56 1.9* -9.70 S; -36.73 W Craíbas AL
2022.08.25 22:15:59 2.2* -13.07 S; -39.55 W Amargosa BA
2022.08.25 18:35:19 1.5 -10.29 S; -36.96 W Cedro de São João SE
2022.08.25 16:01:21 1.9 -6.12 S; -36.51 W Lagoa Nova RN
2022.08.25 03:11:55 1.6* -13.06 S; -39.55 W Amargosa BA
2022.08.24 07:08:00 2.2* -6.17 S; -37.55 W Belém do Brejo do Cruz PB
2022.08.24 00:06:00 1.7* -13.08 S; -39.60 W Amargosa BA
2022.08.23 18:22:10 2.3 -13.10 S; -39.56 W Amargosa BA
2022.08.23 11:08:57 1.9* -13.08 S; -39.62 W Amargosa BA
2022.08.20 01:39:00 1.5* -11.29 S; -40.52 W Jacobina BA
2022.08.19 16:37:56 1.8* -9.49 S; -36.38 W Mar Vermelho AL
2022.08.19 09:33:00 2.5* -9.80 S; -39.87 W Jaguarari BA
2022.08.19 05:03:00 1.5* -9.49 S; -36.39 W Mar Vermelho AL
2022.08.19 04:33:32 1.7* -9.50 S; -36.38 W Mar Vermelho AL
2022.08.17 19:23:00 1.6* -9.41 S; -36.06 W Capela AL
2022.08.15 23:56:15 1.8* -11.27 S; -40.51 W Jacobina BA
2022.08.15 13:38:00 2.0* -3.11 S; -40.62 W Granja CE
2022.08.14 09:34:00 1.6* -9.84 S; -39.86 W Jaguarari BA
2022.08.14 09:26:20 1.6* -5.37 S; -35.95 W Parazinho RN
2022.08.14 04:40:00 1.5* -11.28 S; -40.51 W Jacobina BA
2022.08.13 21:42:00 1.8 -13.03 S; -39.35 W Governador Mangabeira BA
2022.08.12 21:19:44 2.0* -5.50 S; -36.16 W Pedra Preta RN
2022.08.11 15:08:00 1.8 -9.68 S; -36.65 W Arapiraca AL
2022.08.09 02:16:00 1.6* -5.62 S; -35.73 W João Câmara RN
2022.08.08 23:09:00 2.1* -5.48 S; -35.77 W João Câmara RN
2022.08.07 04:17:00 2.5 -9.86 S; -39.82 W Jaguarari BA
2022.08.06 09:17:00 1.6* -3.57 S; -40.52 W Alcântaras CE
2022.08.06 07:54:00 1.7* -3.61 S; -40.50 W Alcântaras CE
2022.08.05 07:49:07 1.6 -5.20 S; -35.06 W Litoral do RN RN
2022.08.04 15:00:13 2.4* -9.73 S; -36.69 W Arapiraca AL
2022.08.03 15:08:59 1.6* -7.48 S; -36.83 W Taperoá PB
2022.08.03 06:02:00 2.0* -4.69 S; -35.18 W Litoral do RN
2022.08.01 22:11:00 1.8 -12.60 S; -39.01 W Governador Mangabeira BA
2022.08.01 02:59:00 2.3* -4.33 S; -35.07 W Litoral do RN

 

* Magnitude não revisada/preliminar Última atualização em 01/09/2022 às 17:10 hora local. Obs.: A hora dos tremores está em UTC, são 3 horas a mais da hora local. 

 

 

Boletim de eventos Sísmicos registrados pelo LabSis na região Nordeste em Julho de 2022 com magnitude maior ou igual a 1.5

 

Data Hora UTC Magnitude Coordenadas Local
2022.07.31 19:39:59 2.4* -5.25 S; -35.10 W Litoral do RN
2022.07.31 19:20:08 1.9* -4.85 S; -34.96 W Litoral do RN
2022.07.31 19:05:26 3.7* -5.03 S; -35.19 W Litoral do RN
2022.07.31 03:34:00 2.4* -5.45 S; -35.19 W Litoral do RN
2022.07.30 02:45:00 1.5 -3.23 S; -40.93 W Granja CE
2022.07.28 16:13:00 1.7* -11.27 S; -40.51 W Jacobina BA
2022.07.28 15:00:00 2.3* -9.72 S; -36.74 W Arapiraca AL
2022.07.27 17:29:00 2.2* -8.41 S; -35.75 W Bonito PE
2022.07.27 17:24:22 1.5* -11.25 S; -40.51 W Jacobina BA
2022.07.27 02:17:00 1.6* -8.14 S; -35.31 W Vitória de Santo Antão PE
2022.07.25 04:15:00 1.8* -11.28 S; -40.51 W Jacobina BA
2022.07.24 21:52:00 1.7* -9.94 S; -39.85 W Jaguarari BA
2022.07.23 14:04:00 1.8* -11.24 S; -40.52 W Jacobina BA
2022.07.23 13:57:09 2.5* -11.27 S; -40.52 W Jacobina BA
2022.07.21 15:19:25 2.2* -7.41 S; -35.09 W Itambé PE
2022.07.21 15:00:00 2.2* -9.70 S; -36.67 W Arapiraca AL
2022.07.21 13:30:08 2.5 -8.90 S; -40.09 W Lagoa Grande PE
2022.07.19 21:34:00 1.5* -11.30 S; -40.51 W Jacobina BA
2022.07.19 03:27:31 1.5* -7.20 S; -36.41 W Juazeirinho PB
2022.07.18 21:31:31 1.7* -13.02 S; -39.52 W Amargosa BA
2022.07.15 15:04:27 1.5* -10.37 S; -36.35 W Piaçabuçu AL
2022.07.15 10:07:49 1.5* -11.32 S; -40.47 W Jacobina BA
2022.07.15 10:03:33 1.7* -11.32 S; -40.47 W Jacobina BA
2022.07.12 15:05:47 1.5* -10.95 S; -39.41 W Nordestina BA
2022.07.11 11:17:22 1.8* -11.27 S; -40.43 W Jacobina BA
2022.07.10 00:38:00 2.6* -9.74 S; -39.99 W Curaça BA
2022.07.09 15:59:53 2.0* -10.93 S; -39.30 W Nordestina BA
2022.07.08 19:22:27 1.6* -3.35 S; -40.62 W Uruoca CE
2022.07.07 18:00:59 1.5* -7.61 S; -36.51 W Serra Branca PB
2022.07.07 15:00:19 1.6* -9.72 S; -36.69 W Craíbas BA
2022.07.07 03:15:46 1.8* -11.27 S; -40.43 W Jacobina BA
2022.07.06 20:01:25 1.5* -11.24 S; -39.19 W Santaluz BA
2022.07.06 15:05:02 1.7* -11.37 S; -39.50 W Valente BA
2022.07.06 13:07:59 1.6* -12.35 S; -39.78 W Ipirá BA
2022.07.06 08:13:00 2.0 -9.74 S; -39.99 W Juazeiro BA
2022.07.05 19:12:08 1.7 -3.55 S; -40.42 W Meruoca CE
2022.07.03 12:16:00 2.1* -8.67 S; -35.86 W Agrestina PE

 

 

* Magnitude não revisada/preliminar Última atualização em 01/08/2022 às 11:00 hora local. Obs.: A hora dos tremores está em UTC, são 3 horas a mais da hora local. 

 

Boletim de eventos Sísmicos registrados pelo LabSis na região Nordeste em Junho de 2022 com magnitude maior ou igual a 1.5

Data Hora UTC Magnitude Coordenadas Local
2022.06.30 15:13:45 1.7* -10.91 S; -39.27 W Queimadas BA
2022.06.30 14:32:50 1.5* -10.59 S; -40.52 W Campo Formoso BA
2022.06.29 15:56:00 1.5 -5.57 S; -35.76 W João Câmara RN
2022.06.28 18:33:23 1.5* -7.26 S; -35.86 W Campina Grande PB
2022.06.26 03:33:00 1.6 -11.30 S; -40.50 W Jacobina BA
2022.06.24 19:39:00 2.0 -5.90 S; -36.98 W São Paulo do Potengi RN
2022.06.23 09:52:00 1.9 -9.76 S; -39.63 W Curaçá BA
2022.06.21 15:07:26 1.5* -10.88 S; -39.60 W Queimadas BA
2022.06.21 15:02:21 1.6* -10.52 S; -39.56 W Cansanção BA
2022.06.19 10:01:00 1.7 -11.27 S; -40.49 W Jacobina BA
2022.06.18 14:23:01 1.5* -6.38 S; -36.32 W Picuí PB
2022.06.17 07:03:48 1.6* -3.31 S; -40.52 W Uruoca CE
2022.06.15 15:01:33 1.5* -10.55 S; -39.14 W Euclides da Cunha BA
2022.06.13 20:20:46 1.7* -3.93 S; -40.15 W Forquilha CE
2022.06.13 19:35:06 1.5* -6.86 S; -35.72 W Arara PB
2022.06.13 02:15:28 1.6* -11.27 S; -40.48 W Jacobina BA
2022.06.12 23:01:00 1.7 -11.27 S; -40.47 W Jacobina BA
2022.06.12 17:40:00 1.8 -11.28 S; -40.49 W Jacobina BA
2022.06.11 18:58:00 1.6 -11.28 S; -40.50 W Jacobina BA
2022.06.11 05:21:00 1.6 -11.30 S; -40.51 W Jacobina BA
2022.06.11 01:34:13 1.5* -11.24 S; -40.49 W Jacobina BA
2022.06.10 20:02:36 1.6* -5.79 S; -36.25 W Lajes RN
2022.06.10 17:43:06 1.5* -5.69 S; -36.80 W Assu RN
2022.06.09 19:27:00 1.5 -5.77 S; -37.52 W Caraúbas RN
2022.06.09 14:59:41 1.8* -9.59 S; -36.77 W Craíbas AL
2022.06.09 07:45:00 1.6 -5.75 S; -37.48 W Caraúbas RN
2022.06.09 00:23:57 1.5* -5.70 S; -36.18 W Lajes RN
2022.06.07 09:54:40 1.6* -11.27 S; -40.49 W Jacobina BA
2022.06.03 20:58:00 1.5* -6.30 S; -37.66 W Catolé do Rocha PB
2022.06.03 15:05:04 1.6* -11.03 S; -39.26 W Queimadas BA
2022.06.02 17:49:20 1.6* -5.14 S; -37.89 W Limoeiro do Norte CE
2022.06.02 15:00:07 1.5* -9.70 S; -36.75 W Craíbas AL
2022.06.02 14:18:58 1.6* -9.77 S; -37.24 W Pão de Açúcar AL
2022.06.01 19:43:05 1.5* -8.04 S; -36.82 W Monteiro PE
2022.06.01 00:44:00 1.7 -8.67 S; -35.86 W Lagoa dos Gatos PE
2022.06.01 00:26:52 1.5* -6.49 S; -37.56 W São Bento RN

 

* Magnitude não revisada/preliminar Última atualização em 01/07/2022 às 17:40 hora local. Obs.: A hora dos tremores está em UTC, são 3 horas a mais da hora local. 

 

 

Boletim de eventos Sísmicos registrados pelo LabSis na região Nordeste em Maio de 2022 com magnitude maior ou igual a 1.5

Data Hora UTC Magnitude Coordenadas Local
2022.05.31 15:04:39 1.5* -7.59 S; -37.09 W São José do Egito PB
2022.05.28 00:29:00 1.6 -11.29 S; -40.52 W Jacobina BA
2022.05.25 16:06:00 2.1 -10.11 S; -39.68 W Monte Santo BA
2022.05.25 09:50:35 1.6* -11.28 S; -40.52 W Jacobina BA
2022.05.23 18:02:15 2.0* -10.75 S; -39.44 W Cansanção BA
2022.05.21 15:02:38 1.5* -8.11 S; -34.96 W Jaboatão dos Guararapes PE
2022.05.18 03:09:00 1.5 -3.26 S; -40.48 W Uruoca CE
2022.05.17 16:14:00 1.7 -8.29 S; -36.02 W Caruaru PE
2022.05.17 02:32:45 1.7* -8.14 S; -35.36 W Pombos PE
2022.05.15 08:30:00 1.7 -11.23 S; -40.51 W Jacobina BA
2022.05.14 17:31:45 1.5* -3.77 S; -40.36 W Sobral CE
2022.05.13 17:59:28 1.5* -11.23 S; -40.49 W Jacobina BA
2022.05.13 17:28:47 1.6* -5.64 S; -36.83 W Assu RN
2022.05.13 15:00:21 1.8* -9.66 S; -36.81 W Craíbas AL
2022.05.12 15:01:49 1.5* -10.10 S; -40.28 W Jaguarari BA
2022.05.12 13:32:43 1.6* -6.2 S; -38.88 W Orós CE
2022.05.12 11:54:23 1.5* -6.11 S; -36.20 W Cerro Corá RN
2022.05.11 20:11:20 1.5* -3.81 S; -38.65 W Caucaia CE
2022.05.10 16:02:03 1.6* -11.83 S; -41.65 W Canarana BA
2022.05.10 10:57:37 1.7* -9.95 S; -39.81 W Uauá BA
2022.05.10 07:11:00 1.5* -13.07 S; -39.49 W Amargosa BA
2022.05.10 01:51:00 2.6 -11.6 S; -35.81 W Atlântico Sul BR (Plataforma C) SE
2022.05.09 21:01:38 1.5* -5.63 S; -36.21 W Lajes RN
2022.05.09 19:07:57 2.0* -5.73 S; -36.06 W Lajes RN
2022.05.08 07:48:00 2.3 -11.29 S; -40.51 W Jacobina BA
2022.05.06 19:02:29 1.5* -7.50 S; -35.47 W Macaparana PE
2022.05.05 11:00:26 2.1* -11.29 S; -40.52 W Jacobina BA
2022.05.05 08:42:17 1.8* -2.92 S; -39.75 W Litoral CE
2022.05.04 17:34:15 1.5* -5.77 S; -37.53 W Caraúbas RN
2022.05.04 14:17:35 1.6* -4.01 S; -38.58 W Guaiúba CE

 

* Magnitude não revisada/preliminar Última atualização em 01/06/2022 às 08:00 hora local. Obs.: A hora dos tremores está em UTC, são 3 horas a mais da hora local. 

 

 

 

Boletim de eventos Sísmicos registrados pelo LabSis na região Nordeste em Abril de 2022 com magnitude maior ou igual a 1.5

Data Hora UTC Magnitude Coordenadas Local
2022.04.29 21:43:18 2.0* -10.04 S; -36.90 W Traipu AL
2022.04.28 11:53:09 1.5* -9.16 S; -36.05 W União dos Palmares AL
2022.04.27 15:25:55 1.8* -9.63 S; -35.85 W Santa Luzia do Norte AL
2022.04.19 17:27:25 2.2* -3.83 S; -40.58 W Sobral CE
2022.04.17 06:04:56 1.6* -5.68 S; -36.14 W Lajes RN
2022.04.16 10:23:00 1.5* -9.88 S; -36.87 W Traipu AL
2022.04.14 20:19:54 1.5* -5.69 S; -36.08 W Lajes RN
2022.04.14 18:27:13 1.5* -9.50 S; -36.00 W Atalaia AL
2022.04.14 15:07:01 2.1 -10.99 S; -39.35 W Santaluz BA
2022.04.14 09:03:00 2.1 -9.84 S; -39.92 W Jaguarari BA
2022.04.13 15:25:29 1.5 -5.75 S; -37.53 W Caraúbas RN
2022.04.12 14:50:02 1.5* -8.21 S; -35.87 W Bezerros PE
2022.04.11 19:49:03 1.6* -8.79 S; -36.43 W Jucati PE
2022.04.09 19:45:50 1.5* -8.26 S; -35.34 W Chã Grande PE
2022.04.08 02:31:00 1.7* -8.52 S; -35.88 W São Joaquim dos Montes PE
2022.04.07 04:22:30 1.57* -3.35 S; -40.25 W Santana do Acaraú CE
2022.04.06 18:01:53 1.9* -10.89 S; -39.49 W Queimadas BA
2022.04.05 16:54:43 1.5* -7.14 S; -35.90 W Puxinana PB
2022.04.03 14:52:34 1.5* -7.15 S; -36.00 W Pocinhos PB
2022.04.02 20:01:32 1.5* -6.29 S; -36.03 W Santa Cruz RN
2022.04.01 20:57:51 1.6* -6.98 S; -37.25 W Patos PB
2022.04.01 20:31:59 1.5* -6.94 S; -37.11 W Patos PB
2022.04.01 15:11:03 1.5* -10.32 S; -39.95 W Jaguarari BA
2022.04.01 15:02:48 1.7* -10.85 S; -39.46 W Queimadas BA

 Última atualização em 03/05/2022 às 14:20 hora local. Obs.: A hora dos tremores está em UTC, são 3 horas a mais da hora local.

* Magnitude não revisada/preliminar 

 

Boletim de eventos Sísmicos registrados pelo LabSis na região Nordeste em Março de 2022 com magnitude maior ou igual a 1.5

 

Data Hora UTC Magnitude Coordenadas Local
2022.03.31
23:55:22
2.1*
-9.9 S; -39.88 W
Jaguarari BA
2022.03.31
15:42:17
1.9*
-9.92 S; -36.76 W
Girau do Ponciano AL
2022.03.29 19:21:30 1.6* -3.81 S; -40.53 W Sobral CE
2022.03.29 19:06:32 1.5* -5.31 S; -38.89 W Banabuiu CE
2022.03.29 02:25:53 2.0* -8.44 S; -35.10 W Escada PE
2022.03.28 19:27:10 1.5* -5.68 S; -36.05 W Lajes RN
2022.03.28 08:41:00 2.1* -9.97 S; -39.83 W Jaguarari BA
2022.03.27 10:32:53 2.0* -8.18 S; -34.87 W Jaboatão dos Guararapes PE
2022.03.27 09:13:00 1.7 -10.52 S; -39.34 W Monte Santo BA
2022.03.27 08:57:07 1.6 -5.73 S; -37.51 W Caraúbas RN
2022.03.27 02:28:00 2.2* -5.64 S; -36.20 W Lajes RN
2022.03.24 19:04:42 1.7* -10.87 S; -39.27 W Nordestina BA
2022.03.24 18:42:14 1.5* -3.81 S; -40.56 W Sobral CE
2022.03.24 17:10:37 1.8* -9.61 S; -39.82 W Curaçá BA
2022.03.24 17:08:00 1.5* -9.61 S; -39.82 W Curaçá BA
2022.03.22 20:56:08 1.8* -8.19 S; -36.73 W Poção PE
2022.03.22 17:19:36 2.1* -8.27 S; -35.86 W Caruaru PE
2022.03.22 15:01:19 2.0* -10.60 S; -39.56 W Cansanção BA
2022.03.22 02:48:45 1.9 -8.24 S; -35.17 W Cabo de Santo Agostinho PE
2022.03.21 20:30:52 1.7* -7.16 S; -35.47 W Gurinhém PB
2022.03.20 10:17:00 2.4* -4.23 S; -39.41 W Paramoti CE
2022.03.19 18:48:21 1.5 -3.58 S; -40.45 W Meruoca CE
2022.03.18 20:14:13 1.5* -6.85 S; -36.95 W Santa Luzia PB
2022.03.18 00:04:00 1.8* -13.25 S; -39.63 W Ubaíra BA
2022.03.17 20:55:53 1.5* -5.32 S; -37.85 W Tabuleiro do Norte CE
2022.03.17 17:12:35 1.6* -11.22 S; -39.09 W Santaluz BA
2022.03.16 20:54:01 1.8* -5.11 S; -39.07 W Quixeramobim CE
2022.03.16 19:27:45 1.5* -5.79 S; -36.11 W Lajes RN
2022.03.15 21:00:00 1.9 -4.33 S; -38.21 W Beberibe CE
2022.03.15 20:51:37 1.6* -5.64 S; -36.14 W Lajes RN
2022.03.14 15:09:00 1.8 -5.74 S; -37.53 W Caraúbas RN
2022.03.12 17:05:11 1.7 -8.87 S; -36.45 W Garanhuns PE
2022.03.12 16:43:13 1.8 -8.87 S; -36.44 W Garanhuns PE
2022.03.12 04:53:00 1.6 -5.73 S; -36.08 W Caiçara do Rio dos Ventos RN
2022.03.10 21:16:29 1.5* -8.40 S; -35.24 W Escada PE
2022.03.09 14:58:39 1.7* -3.65 S; -40.65 W Coreaú CE
2022.03.09 09:30:18 1.7 -8.24 S; -36.00 W Caruaru PE
2022.03.07 20:03:30 1.6* -4.06 S; -38.62 W Guaiúba CE
2022.03.07 19:36:00 1.7* -11.22 S; -40.53 W Jacobina BA
2022.03.07 19:14:56 1.6* -10.99 S; -39.36 W Queimadas BA
2022.03.07 03:39:00 1.7* -3.59 S; -40.50 W Alcântara CE
2022.03.05 14:59:12 2.0 -6.59 S; -39.43 W Carius CE
2022.03.04 23:16:00 1.6* -11.25 S; -40.48 W Jacobina BA
2022.03.04 17:24:00 1.8* -11.25 S; -40.48 W Jacobina BA
2022.03.04 14:57:03 1.9 -11.28 S; -40.50 W Jacobina BA
2022.03.04 08:29:00 2.5* -11.25 S; -40.51 W Jacobina BA
2022.03.04 07:19:00 1.5* -11.27 S; -40.48 W Jacobina BA
2022.03.04 07:05:00 1.7* -11.28 S; -40.50 W Jacobina BA
2022.03.04 06:19:49 1.8* -9.41 S; -36.20 W Viçosa AL
2022.03.04 03:35:00 1.6* -11.21 S; -40.55 W Jacobina BA
2022.03.04 03:11:00 1.6* -11.27 S; -40.48 W Jacobina BA
2022.03.04 03:07:00 1.7* -11.27 S; -40.48 W Jacobina BA
2022.03.04 02:58:57 2.3 -11.25 S; -40.51 W Jacobina BA
2022.03.04 02:57:00 1.7* -11.25 S; -40.51 W Jacobina BA
2022.03.04 02:55:00 2.0* -11.25 S; -40.51 W Jacobina BA
2022.03.03 18:31:09 1.5* -9.38 S; -36.47 W Quebrangulo AL
2022.03.02 16:02:29 1.5* -9.26 S; -36.41 W Quebrangulo AL
2022.03.01 02:31:01 1.6 -8.09 S; -35.20 W São Lourenço da Mata PE



  Última atualização em 01/04/2022 às 13:30 hora local. Obs.: A hora dos tremores está em UTC, são 3 horas a mais da hora local.* Magnitude não revisada/preliminar  

 

 

Boletim de eventos Sísmicos registrados pelo LabSis na região Nordeste em Fevereiro de 2022 com magnitude maior ou igual a 1.5

Data Hora UTC Magnitude Coordenadas Local
2022.02.28 04:49:00 1.7* -4.05 S; -39.75 W Irauçuba CE
2022.02.26 03:48:00 1.7* -9.79 S; -39.95 W Curaça BA
2022.02.26 02:59:03 1.5* -5.75 S; -36.10 W Lajes RN
2022.02.26 02:54:00 1.6* -5.74 S; -35.08 W Caiçara do Rio dos Ventos RN
2022.02.25 19:22:24 1.5* -5.75 S; -36.11 W Lajes RN
2022.02.25 08:24:04 1.5* -5.73 S; -36.13 W Lajes RN
2022.02.23 19:53:38 1.6* -3.70 S; -40.60 W Sobral CE
2022.02.23 19:05:20 1.8* -9.61 S; -36.22 W Maribondo AL
2022.02.23 15:12:18 1.6* -5.63 S; -37.15 W Upanema RN
2022.02.20 08:25:21 3.5* -10.46 S; -50.28 W Parque Nacional do Araguaia TO
2022.02.20 00:33:59 2.4* -4.57 S; -39.39 W Canindé CE
2022.02.19 05:09:17 2.1 -9.80 S; -39.85 W Curaçá BA
2022.02.18 17:45:46 1.5* -5.70 S; -35.55 W Poço Branco RN
2022.02.17 21:24:22 1.6* -5.26 S; -39.81 W Boa Viagem CE
2022.02.17 19:36:18 1.7* -9.29 S; -36.16 W Viçosa AL
2022.02.17 15:01:59 1.7* -9.99 S; -36.73 W Girau do Ponciano AL
2022.02.16 07:15:24 2.3* -11.29 S; -40.56 W Jacobina BA
2022.02.15 08:05:41 1.7 -3.60 S; -40.12 W Santana do Acaraú CE
2022.02.10 21:47:58 1.8* -4.55 S; -39.37 W Canindé CE
2022.02.08 14:55:00 1.9 -8.92 S; -36.46 W Garanhus PE
2022.02.08 13:38:43 2.0 -4.56 S; -39.35 W Canindé CE
2022.02.07 14:59:00 1.5* -5.71 S; -37.17 W Upanema RN
2022.02.07 03:43:54 1.7 -4.57 S; -39.37 W Canindé CE
2022.02.06 17:19:00 1.9* -4.54 S; -39.37 W Canindé CE
2022.02.04 14:33:11 1.6* -4.13 S; -38.56 W Guaiúba CE
2022.02.04 10:08:37 1.5* -4.57 S; -39.42 W Canindé CE
2022.02.04 05:51:49 1.6* -5.99 S; -36.44 W Bodó RN


Última atualização em 03/03/2022 às 10:30 hora local. Obs.: A hora dos tremores está em UTC, são 3 horas a mais da hora local.* Magnitude não revisada/preliminar  

 

 

Boletim de eventos Sísmicos registrados pelo LabSis na região Nordeste em Janeiro de 2022 com magnitude maior ou igual a 1.5

 

Data Hora UTC Magnitude Coordenadas Local
2022.01.31 04:44:00 1.7* -13.11 S; -39.41 W Lage BA
2022.01.30 19:57:00 2.1* -11.19 S; -40.67 W Jacobina BA
2022.01.30 19:53:00 2.3* -11.16 S; -40.54 W Jacobina BA
2022.01.30 04:27:00 1.7 -4.56 S; -39.37 W Canindé CE
2022.01.29 10:37:00 2.4* -11.23 S; -40.57 W Jacobina BA
2022.01.28 18:52:02 3.2* -5.65 S; -50.48 W Paraupebas PA
2022.01.28 18:44:04 1.5* -5.55 S; -36.05 W Lajes RN
2022.01.27 09:22:34 1.6* -4.34 S; -38.22 W Beberibe CE
2022.01.27 06:06:58 1.5* -4.22 S; -39.44 W Paramoti CE
2022.01.27 02:17:00 1.8* -4.21 S; -39.43 W Paramoti CE
2022.01.25 19:45:41 1.7* -9.69 S; -36.66 W Craíbas AL
2022.01.22 18:44:01 1.5* -10.51 S; -40.34 W Campo Formoso BA
2022.01.22 00:48:58 1.6* -4.37 S; -38.32 W Chorozinho CE
2022.01.21 19:05:51 1.6* -5.57 S; -36.20 W Lajes RN
2022.01.19 14:59:17 1.6* -9.73 S; -36.72 W Craíbas AL
2022.01.19 14:44:16 1.6* -11.26 S; -40.46 W Jacobina BA
2022.01.18 20:12:14 1.7* -3.85 S; -38.66 W Maracanaú CE
2022.01.14 20:09:14 1.9* -8.30 S; -35.95 W Caruaru PE
2022.01.13 20:07:52 1.5* -3.85 S; -38.68 W Maranguape CE
2022.01.13 19:07:00 1.8* -9.73 S; -36.23 W Anadia AL
2022.01.12 23:06:43 2.1* -5.14 S; -39.12 W Quixadá CE
2022.01.08 22:50:16 1.5* -5.89 S; -37.06 W Jucurutu RN
2022.01.08 22:49:27 1.7* -5.24 S; -35.41 W Touros RN
2022.01.08 19:20:13 1.5* -9.46 S; -36.17 W Cajueiro AL
2022.01.07 19:29:28 3.7 -5.72 S; -50.65 W Marabá PA
2022.01.07 09:47:00 1.6* -4.41 S; -38.35 W Ocará CE
2022.01.05 20:00:56 1.5* -4.05 S; -38.55 W Guaiúba CE

 

Última atualização em 02/02/2022 às 14:30 hora local. Obs.: A hora dos tremores está em UTC, são 3 horas a mais da hora local.* Magnitude não revisada/preliminar

 

 Boletim de eventos Sísmicos registrados pelo LabSis na região Nordeste em Dezembro de 2021 com magnitude maior ou igual a 1.5

Data Hora UTC Magnitude Coordenadas Local
2021.12.31 16:48:00 2.1* -8.43 S; -35.23 W Ipojuca PE
2021.12.30 14:59:17 1.5* -9.76 S; -36.79 W Girau do Ponciano AL
2021.12.29 23:49:00 1.7* -10.15 S; -36.90 W Canhoba SE
2021.12.29 19:23:28 1.6* -9.56 S; -37.23 W Olho Dágua das Flores AL
2021.12.29 16:05:26 1.5* -10.86 S; -37.20 W Laranjeiras SE
2021.12.29 14:54:58 1.7* -10.95 S; -39.34 W Queimadas BA
2021.12.29 00:06:00 1.7 -5.63 S; -36.15 W Lajes RN
2021.12.28 20:17:00 2.1 -9.04 S; -36.23 W Palmeirinha PE
2021.12.27 20:49:08 1.5* -8.10 S; -35.12 W Moreno PE
2021.12.27 07:07:00 1.6* -11.22 S; -40.46 W Jacobina BA
2021.12.27 01:46:03 1.5* -11.16 S; -41.71 W São Gabriel BA
2021.12.26 00:20:00 1.8* -3.01 S; -40.97 W Camocim CE
2021.12.25 08:15:18 2.0* -8.69 S; -36.16 W Panelas PE
2021.12.23 20:14:57 1.8 -10.13 S; -36.94 W Amparo de São Francisco SE
2021.12.23 14:49:00 1.5* -9.77 S; -37.23 W Belo Monte AL
2021.12.22 10:20:04 1.7* -11.39 S; -39.11 W Araci BA
2021.12.22 06:28:00 1.9 -5.82 S; -40.09 W Tauá CE
2021.12.22 05:48:00 2.0 -5.92 S; -40.16 W Tauá CE
2021.12.21 17:09:00 1.7 -5.58 S; -36.16 W Pedra Preta RN
2021.12.21 16:26:00 1.7* -10.77 S; -37.25 W Riachuelo SE
2021.12.20 09:36:00 1.6* -10.77 S; -39.39 W Monte Santo BA
2021.12.18 17:12:00 1.7 -4.63 S; -40.40 W Sobral CE
2021.12.17 20:56:00 1.7 -4.35 S; -38.27 W Cascavel CE
2021.12.17 16:57:00 2.1 -5.15 S; -39.29 W Quixeramobim CE
2021.12.17 00:16:00 1.8 -4.35 S; -38.25 W Cascavel CE
2021.12.15 01:35:00 1.7* -3.22 S; -40.40 W Marco CE
2021.12.14 15:39:00 1.6* -9.87 S; -39.97 W Jaguarari BA
2021.12.13 04:35:00 2.0 -5.93 S; -39.24 W Irapuan Pinheiro CE
2021.12.11 18:53:31 1.7* -3.76 S; -38.81 W Caucaia CE
2021.12.11 15:12:14 1.5* -11.30 S; -40.57 W Jacobina BA
2021.12.11 15:00:11 1.8* -13.89 S; -40.80 W Maracas BA
2021.12.10 18:36:00 1.9* -3.79 S; -40.60 W Sobral CE
2021.12.10 18:22:00 1.9 -9.46 S; -35.80 W Rio Largo AL
2021.12.10 02:17:00 2.8* -17.17 S; -38.45 W Plataforma Continental Sul da BA
2021.12.09 02:06:00 2.0* -11.22 S; -40.48 W Jacobina BA
2021.12.07 15:19:00 2.7* -3.57 S; -40.95 W Viçosa do Ceará CE
2021.12.07 02:28:00 1.6 -8.11 S; -35.22 W Vitória de Santo Antão PE
2021.12.06 19:31:44 1.8* -9.48 S; -35.89 W Rio Largo AL
2021.12.06 03:04:00 1.8* -4.72 S; -38.10 W Russas CE
2021.12.05 21:09:00 2.0* -11.22 S; -40.43 W Jacobina BA
2021.12.05 02:00:00 1.7 -11.21 S; -40.45 W Jacobina BA
2021.12.04 15:14:00 1.8* -9.71 S; -40.25 W Juazeiro BA
2021.12.02 19:23:56 1.5* -9.55 S; -37.26 W Olho Dágua das Flores AL
2021.12.02 18:04:46 1.8* -6.44 S; -39.21 W Iguatu CE
2021.12.02 17:33:00 1.7 -5.46 S; -35.08 W Lajes RN
2021.12.02 15:08:35 2.0* -8.85 S; -36.46 W Garanhuns PE


Última atualização em 31/01/2022 às 15:00 hora local. Obs.: A hora dos tremores está em UTC, são 3 horas a mais da hora local.* Magnitude não revisada/preliminar   

 

Boletim de eventos Sísmicos registrados pelo LabSis na região Nordeste em Novembro de 2021 com magnitude maior ou igual a 1.5

 

Data Hora UTC Magnitude Coordenadas Local
2021.11.30 19:01:31 1.7* -11.17 S; -39.32 W Santaluz BA
2021.11.30 13:02:34 1.5* -9.76 S; -37.20 W Pão de Açúcar BA
2021.11.30 00:45:47 1.6* -10.57 S; -40.51 W Campo Formoso BA
2021.11.26 21:09:34 1.5* -8.22 S; -36.72 W Poção PE
2021.11.26 19:38:45 1.5* -8.06 S; -37.86 W Serra Talhada PE
2021.11.26 18:57:09 1.5* -5.81 S; -35.48 W Ielmo Marinho RN
2021.11.26 18:07:31 1.5* -9.21 S; -36.01 W Murici AL
2021.11.26 15:40:22 1.6* -7.29 S; -35.91 W Campina Grande PB
2021.11.26 07:15:00 1.7* -8.38 S; -36.02 W Caruaru PE
2021.11.25 20:30:20 1.6* -8.54 S; -37.03 W Arcoverde PE
2021.11.25 20:06:27 1.5* -8.21 S; -35.82 W Bezerros PE
2021.11.25 18:16:07 1.5* -5.10 S; -39.14 W Quixeramobim CE
2021.11.25 15:09:34 2.3* -3.79 S; -40.54 W Sobral CE
2021.11.25 00:53:00 2.1* -9.87 S; -39.39 W Jaguarari BA
2021.11.24 18:27:22 1.6* -5.16 S; -39.05 W Quixeramobim CE
2021.11.24 00:42:28 2.0 -10.71 S; -37.26 W Malhador SE
2021.11.23 17:16:17 1.6* -6.47 S; -39.46 W Jucás CE
2021.11.23 14:57:04 1.7 -10.03 S; -40.19 W Jaguarari BA
2021.11.23 14:10:42 1.6* -7.57 S; -37.90 W Juru PB
2021.11.23 03:26:29 1.8* -8.16 S; -35.19 W Moreno PE
2021.11.19 22:32:49 1.6* -4.72 S; -38.11 W Palhano CE
2021.11.19 14:59:13 1.9* -9.67 S; -36.70 W Arapiraca AL
2021.11.17 05:49:27 2.0* -5.37 S; -35.25 W Costa do Atlântico RN
2021.11.16 19:11:32 1.8* -9.53 S; -37.26 W Olho Dágua das Flores AL
2021.11.16 13:11:20 1.9* -3.55 S; -40.89 W Caraúbas do Piauí CE
2021.11.16 02:39:17 1.8* -10.37 S; -39.85 W Andorinha BA
2021.11.13 06:53:15 2.4* -12.65 S; -37.31 W Costa da Bahia BA
2021.11.12 01:07:05 1.9* -10.50 S; -35.93 W Costa de Alagoas AL
2021.11.10 20:10:07 1.7* -9.75 S; -36.66 W Arapiraca AL
2021.11.10 18:31:49 1.7* -3.53 S; -39.23 W Paraipaba CE
2021.11.10 07:03:19 1.6* -9.64 S; -39.58 W Curaça BA
2021.11.08 15:00:14 1.6* -9.72 S; -36.73 W Craíbas AL
2021.11.05 19:57:10 1.5* -7.90 S; -37.85 W Flores PE
2021.11.04 21:35:52 2.1* -9.94 S; -39.90 W Jaguarari BA
2021.11.04 15:03:46 1.9* -4.66 S; -38.00 W Palhano CE
2021.11.03 00:13:01 1.8* -11.21 S; -40.46 W Jacobina BA
2021.11.02 15:10:27 1.6* -2.49 S; -36.96 W Costa CE
2021.11.01 20:19:37 1.6* -3.81 S; -38.82 W Maranguape CE
2021.11.01 19:37:38 1.8* -6.98 S; -36.71 W Juazeirinho PB
2021.11.01 19:13:00 1.5 -5.76 S; -36.53 W Caraúbas RN

 


Última atualização em 01/12/2021 às 11:00 hora local. Obs.: A hora dos tremores está em UTC, são 3 horas a mais da hora local.* Magnitude não revisada/preliminar    

 

Boletim de eventos Sísmicos registrados pelo LabSis na região Nordeste em Outubro de 2021 com magnitude maior ou igual a 1.5

 

Data Hora UTC Magnitude Coordenadas Local
2021.10.31 19:29:05 1.5* -3.92 S; -40.16 W Forquilha CE
2021.10.30 15:04:00 1.9* -11.86 S; -38.77 W Água Fria BA
2021.10.30 14:58:01 1.5* -9.29 S; -36.15 W Santa Efigênia AL
2021.10.29 20:36:21 2.0* -5.68 S; -36.11 W Lajes RN
2021.10.28 20:53:24 1.5* -5.32 S; -39.8 W Pedra Branca CE
2021.10.28 13:31:00 2.2 -8.88 S; -40.20 W Lagoa Grande PE
2021.10.27 20:35:08 1.5* -8.38 S; -36.43 W Belo Jardim PE
2021.10.27 20:00:37 1.9 -8.36 S; -36.14 W São Caetano PE
2021.10.27 19:54:24 2.0* -8.08 S; -37.84 W Custódia PE
2021.10.25 16:33:22 2.0 -8.30 S; -35.85 W Bezerros PE
2021.10.25 16:01:04 1.6* -12.75 S; -40.36 W Iaçu BA
2021.10.25 15:04:36 1.6* -7.26 S; -35.81 W Campina Grande PB
2021.10.24 15:13:39 2.1 -8.44 S; -35.01 W Ipojuca PE
2021.10.22 15:09:58 1.7* -9.49 S; -35.7 W Rio Largo AL
2021.10.21 19:37:01 1.6 -9.57 S; -37.27 W Monteirópolis AL
2021.10.21 18:31:19 2.3 -8.50 S; -35.22 W Ipojuca PE
2021.10.20 20:58:10 1.6* -9.49 S; -35.94 W Atalaia AL
2021.10.20 04:05:24 1.9 -9.93 S; -39.89 W Jaguarari BA
2021.10.19 02:28:28 1.5* -11.21 S; -39.37 W Santaluz BA
2021.10.18 02:20:41 1.6 -4.73 S; -38.13 W Russas CE
2021.10.17 03:46:00 2.0 -3.68 S; -40.43 W Sobral CE
2021.10.16 19:08:28 1.6* -8.09 S; -38.05 W Calumbi PE
2021.10.16 18:35:41 1.5* -11.01 S; -39.45 W Queimadas BA
2021.10.16 17:21:33 1.6* -9.23 S; -36.04 W Branquinha AL
2021.10.15 20:02:41 1.6* -7.10 S; -39.40 W Crato CE
2021.10.15 13:58:20 1.7* -4.02 S; -38.56 W Guaiúba CE
2021.10.14 20:04:40 1.6* -5.67 S; -37.52 W Caraúbas RN
2021.10.14 19:13:12 1.6* -12.16 S; -38.91 W Feira de Santana BA
2021.10.14 15:05:03 1.5* -10.23 S; -39.32 W Monte Santo BA
2021.10.14 02:41:47 2.0* -9.98 S; -39.73 W Uauá BA
2021.10.13 06:08:11 1.7 -6.31 S; -36.53 W Currais Novos RN
2021.10.12 17:32:13 2.7 -5.26 S; -35.58 W Pureza RN
2021.10.12 02:38:53 2.1* -8.04 S; -35.06 W São Lourenço da Mata PE
2021.10.08 20:05:45 1.5* -6.42 S; -37.16 W Caicó RN
2021.10.08 01:51:44 1.5* -5.71 S; -36.08 W Lajes RN
2021.10.07 15:17:04 1.5* -8.87 S; -36.55 W Garanhus PE
2021.10.07 15:04:16 1.5* -3.12 S; -41.79 W Buriti dos Lopes CE
2021.10.07 15:00:13 1.7* -9.69 S; -36.65 W Craíbas AL
2021.10.07 14:46:36 1.5* -10.55 S; -40.52 W Campo Formoso BA
2021.10.03 14:57:23 1.5* -8.06 S; -37.84 W Flores PE
2021.10.02 19:30:38 1.7* -8.04 S; -37.87 W Flores PE
2021.10.02 14:06:24 1.5* -7.00 S; -37.36 W Patos PB
2021.10.02 12:52:34 5.9* -9.60 S; -71.18 W Tarauacá AC
2021.10.01 19:55:09 1.5* -10.28 S; -39.27 W Monte Santo BA
2021.10.01 09:26:37 2.0* -11.19 S; -40.67 W Jacobina BA
2021.10.01 08:08:57 1.5* -4.69 S; -39.71 W Lagoa do Mato CE

 



Última atualização em 03/11/2021 às 10:30 hora local. Obs.: A hora dos tremores está em UTC, são 3 horas a mais da hora local.* Magnitude não revisada/preliminar  

Boletim de eventos Sísmicos registrados pelo LabSis na região Nordeste em Setembro de 2021 com magnitude maior ou igual a 1.5

Data Hora UTC Magnitude Coordenadas Local
2021.09.30 20:55:59 1.8* -7.29 S; -36.10 W Catolé PB
2021.09.29 19:14:17 1.6* -5.78 S; -37.57 W Caraúbas RN
2021.09.28 21:36:13 1.7* -9.67 S; -36.40 W Limoeiro de Anadia AL
2021.09.28 15:46:48 2.0* -8.00 S; -36.58 W Jataúba PE
2021.09.27 20:07:36 1.6* -3.89 S; -40.52 W Cariré CE
2021.09.27 19:57:57 2.0* -7.68 S; -40.05 W Bodocó PE
2021.09.25 14:30:58 1.6* -3.76 S; -40.31 W Sobral CE
2021.09.24 15:07:05 1.8* -7.02 S; -35.88 W Esperança PB
2021.09.24 15:01:52 1.5* -8.19 S; -36.18 W Brejo da Madre de Deus PE
2021.09.24 14:48:47 1.6* -7.01 S; -35.95 W Esperança PB
2021.09.24 14:39:50 1.9 -10.71 S; -40.65 W Queimadas BA
2021.09.24 08:16:03 1.9* -13.41 S; -38.80 W Recôncavo Baiano BA
2021.09.23 20:12:00 2.1* -7.78 S; -35.62 W Bom Jardim PE
2021.09.23 18:59:00 2.1* -3.94 S; -40.56 W Cariré CE
2021.09.23 16:06:00 2.1* -8.30 S; -36.74 W Sairé PE
2021.09.23 10:46:39 1.5* -9.77 S; -37.22 W Pão de Açúcar AL
2021.09.23 09:01:13 3.1* -3.23 S; -44.67 W Anajatuba MA
2021.09.22 18:28:52 1.5* -9.57 S; -36.67 W Craíbas AL
2021.09.22 17:08:10 1.5 -11.78 S; -40.15 W Baixa Grande BA
2021.09.21 03:27:47 1.7 -8.11 S; -35.20 W Moreno PE
2021.09.22 02:48:14 1.9 -8.37 S; -35.99 W Caruaru PE
2021.09.21 20:06:25 1.5* -9.69 S; -36.66 W Arapiraca AL
2021.09.21 16:04:31 1.5* -8.42 S; -36.06 W Altinho PE
2021.09.21 16:04:00 1.7* -8.41 S; -36.04 W Agrestina PE
2021.09.21 07:35:10 1.5 -3.45 S; -40.31 W Massapê CE
2021.09.18 14:33:10 1.9* -6.79 S; -35.26 W Itapororoca PB
2021.09.17 19:56:00 2.1 -11.04 S; -39.31 W Santaluz BA
2021.09.17 19:48:06 1.7* -4.53 S; -38.52 W Ocara CE
2021.09.17 14:53:09 1.6* -3.90 S; -40.54 W Cariré CE
2021.09.17 14:03:00 1.6* -3.79 S; -38.28 W Litoral CE
2021.09.16 15:09:17 1.8* -10.02 S; -39.22 W Canudos BA
2021.09.15 19:06:32 1.7* -5.58 S; -36.28 W Lajes RN
2021.09.15 17:34:29 2.1* -5.34 S; -42.71 W Dermeval Lobão PI
2021.09.15 16:55:00 1.5* -10.05 S; -37.66 W Gararu SE
2021.09.15 14:56:19 1.5* -10.60 S; -39.31 W Cansanção BA
2021.09.15 13:04:07 1.6* -5.22 S; -39.09 W Quixeramobim CE
2021.09.12 08:02:22 1.8* -8.40 S; -35.99 W Agrestina PE
2021.09.11 16:01:42 1.7* -4.29 S; -38.70 W Barreira CE
2021.09.10 20:02:04 2.4* -11.04 S; -31.31 W Santaluz BA
2021.09.10 15:10:46 1.7* -3.69 S; -40.59 W Sobral CE
2021.09.10 15:00:49 1.5* -10.43 S; -39.18 W Monte Santo BA
2021.09.10 01:09:55 1.7* -8.23 S; -36.07 W Caruaru PE
2021.09.09 21:23:46 2.3* -8.47 S; -35.87 W Agrestina PE
2021.09.09 15:01:24 1.7* -9.70 S; -36.73 W Craíbas AL
2021.09.09 01:14:12 4.5* -6.55 S; -72.64 W Atalaia do Norte AM
2021.09.08 20:30:29 1.7* -8.47 S; -37.07 W Arcoverde PE
2021.09.08 20:23:38 1.7* -5.71 S; -36.19 W Lajes RN
2021.09.08 03:25:39 1.5* -9.86 S; -39.72 W Uauá BA
2021.09.07 23:59:22 2.2* -4.64 S; -34.56 W Plataforma Continental RN
2021.09.07 15:41:08 1.6* -6.01 S; -37.99 W Umarizal RN
2021.09.06 17:52:22 2.1* -5.67 S; -36.09 W Pedra Preta RN
2021.09.06 11:57:06 1.6* -6.58 S; -36.42 W Picuí PB
2021.09.06 06:38:28 2.1* -10.11 S; -36.90 W São Braz AL
2021.09.04 20:16:24 1.6* -9.46 S; -35.95 W Atalaia AL
2021.09.03 15:15:23 1.8 -5.65 S; -37.51 W Caraúbas RN
2021.09.03 14:07:13 1.6* -3.89 S; -38.52 W Maracanaú CE
2021.09.02 15:05:34 1.7* -9.70 S; -36.76 W Craíbas AL
2021.09.01 22:02:12 2.1 -10.12 S; -37.03 W Canhoba SE
2021.09.01 19:36:52 1.9* -12.36 S; -38.61 W Conceição do Jacuípe BA
2021.09.01 15:04:10 1.7* -9.78 S; -39.22 W Uauá BA


  Última atualização em 01/10/2021 às 15:00 hora local. Obs.: A hora dos tremores está em UTC, são 3 horas a mais da hora local.* Magnitude não revisada/preliminar 

 Boletim de eventos Sísmicos registrados pelo LabSis na região Nordeste em Agosto de 2021 com magnitude maior ou igual a 1.5

 

Data Hora UTC Magnitude Coordenadas Local
2021.08.31 14:18:00 1.5* -9.73 S; -37.13 W Batalha AL
2021.08.30 14:57:00 1.6* -8.48 S; -35.85 W São José dos Montes PE
2021.08.30 00:52:13 1.8* -10.44 S; -37.30 W São Miguel do Aleixo SE
2021.08.28 22:05:26 1.5* -5.08 S; -37.84 W Quixeré CE
2021.08.27 15:12:10 1.7* -10.80 S; -39.33 W Nordestina BA
2021.08.27 15:01:01 1.7* -9.67 S; -36.70 W Craíbas AL
2021.08.25 02:44:04 1.6* -10.73 S; -39.77 W Itiúba BA
2021.08.24 20:07:22 1.5* -9.88 S; -38.84 W Canudos BA
2021.08.24 02:12:57 1.7* -4.83 S; -37.80 W Jaguaruana CE
2021.08.23 19:57:00 1.5 -5.69 S; -37.42 W Upanema RN
2021.08.23 14:03:20 1.5* -4.09 S; -38.51 W Horizonte CE
2021.08.22 02:17:54 4.2* -8.25 S; -70.20 W Feijó AC
2021.08.21 16:25:00 1.5* -3.68 S; -40.47 W Sobral CE
2021.08.21 14:51:02 1.7* -5.64 S; -36.17 W Lajes RN
2021.08.20 18:50:52 2.2* -8.37 S; -36.13 W São Caetano PE
2021.08.20 14:07:14 1.5* -11.11 S; -40.35 W Campo Formoso BA
2021.08.18 16:14:56 2.2* -10.00 S; -39.85 W Jaguarari BA
2021.08.17 15:26:59 1.5 -5.58 S; -36.04 W Pedra Preta RN
2021.08.11 05:58:00 2.2 -5.09 S; -34.98 W Plataforma Continental RN
2021.08.10 19:05:54 1.6* -5.16 S; -38.22 W Limoeiro do Norte CE
2021.08.09 19:48:38 1.9 -5.74 S; -37.51 W Caraúbas RN
2021.08.09 17:00:00 2.0 -8.26 S; -35.76 W Bezerros PE
2021.08.09 03:40:17 1.7 -9.43 S; -36.17 W Cajueiro AL
2021.08.07 10:24:25 1.6 -9.66 S; -37.34 W Pão de Açúcar AL
2021.08.05 18:57:37 2.2 -5.68 S; -36.15 W Lajes RN
2021.08.05 18:07:40 1.5* -7.10 S; -38.69 W Barro PB
2021.08.04 06:46:00 1.7* -10.14 S; -37.05 W Propiá SE
2021.08.04 02:57:51 1.7* -8.19 S; -35.25 W Vitória de Santo Antão PE
2021.08.03 09:04:20 2.6 -3.78 S; -39.84 W Irauçuba CE
2021.08.03 06:46:00 1.8 -10.11 S; -36.98 W Canhoba SE
2021.08.03 02:57:00 2.1 -6.22 S; -35.17 W Cabo de São Agostinho PE
2021.08.02 16:41:39 1.5 -5.67 S; -37.46 W Caraúbas RN
2021.08.02 03:59:53 2.8 -9.79 S; -39.91 W Curaçá BA

 

 Última atualização em 01/09/2021 às 12:40 hora local. Obs.: A hora dos tremores está em UTC, são 3 horas a mais da hora local.* Magnitude não revisada/preliminar   

 

 

  Boletim de eventos Sísmicos registrados pelo LabSis na região Nordeste em Julho de 2021 com magnitude maior ou igual a 1.5

 

Data Hora UTC Magnitude Coordenadas Local
2021.07.31 13:04:58 1.7* -7.63 S; -39.00 W Porteiras CE
2021.07.30 20:40:08 2.0* -11.50 S; -39.38 W Santaluz BA
2021.07.30 18:22:11 1.8* -5.39 S; -38.32 W Tabuleiro do Norte CE
2021.07.30 17:04:36 1.5* -3.75 S; -38.83 W Maranguape CE
2021.07.29 23:35:50 1.5* -5.16 S; -37.84 W Limoeiro do Norte CE
2021.07.28 22:02:12 1.6* -10.42 S; -39.14 W Monte Santo BA
2021.07.28 15:03:58 1.5* -10.91 S; -39.35 W Nordestina BA
2021.07.27 19:37:26 2.0* -5.24 S; -36.05 W São Bento do Norte RN
2021.07.26 19:52:05 3.1 -4.88 S; -35.14 W Plataforma Continental RN
2021.07.26 19:33:03 1.5* -5.10 S; -38.26 W Limoeiro do Norte CE
2021.07.26 15:46:58 2.3* -6.89 S; -36.67 W Equador RN
2021.07.26 13:28:00 2.7* -4.86 S; -35.33 W Plataforma Continental RN
2021.07.25 20:15:00 2.1* -4.83 S; -35.41 W Plataforma Continental RN
2021.07.25 18:07:30 2.1* -4.87 S; -35.17 W Plataforma Continental RN
2021.07.25 17:17:00 2.0* -9.55 S; -39.92 W Curaçá BA
2021.07.25 15:49:28 2.7* -5.32 S; -34.88 W Plataforma Continental RN
2021.07.25 14:50:00 2.1* -5.26 S; -35.06 W Plataforma Continental RN
2021.07.25 04:57:00 2.7* -5.09 S; -35.10 W Plataforma Continental RN
2021.07.25 04:25:00 1.5* -5.15 S; -35.05 W Plataforma Continental RN
2021.07.25 03:53:00 2.1* -5.07 S; -35.15 W Plataforma Continental RN
2021.07.25 03:26:56 3.5 -5.15 S; -35.03 W Plataforma Continental RN
2021.07.25 03:25:00 1.5* -5.17 S; -35.10 W Plataforma Continental RN
2021.07.25 03:06:00 3.0* -5.12 S; -35.05 W Plataforma Continental RN
2021.07.24 20:04:28 1.8* -5.27 S; -35.12 W Plataforma Continental RN
2021.07.24 14:53:00 1.7* -10.33 S; -39.30 W Monte Santo BA
2021.07.24 14:39:21 2.5* -5.05 S; -35.17 W Plataforma Continental RN
2021.07.23 14:29:52 1.5* -11.04 S; -39.10 W Santaluz BA
2021.07.23 05:50:42 1.8* -3.99 S; -38.75 W Maranguape CE
2021.07.22 15:51:24 1.5* -9.97 S; -38.46 W Jeremoabo BA
2021.07.22 13:48:34 2.1* -4.88 S; -35.89 W Plataforma Continental RN
2021.07.21 11:35:00 1.5* -9.34 S; -40.04 W Caruaru PE
2021.07.20 20:08:10 1.6* -12.17 S; -38.99 W Feira de Santana BA
2021.07.20 14:38:56 1.7* -12.14 S; -38.77 W Irará BA
2021.07.19 04:39:33 1.9 -4.94 S; -35.28 W Plataforma Continental RN
2021.07.19 01:20:10 1.7* -11.66 S; -39.16 W Conceição do Coité BA
2021.07.12 19:59:39 2.2* -12.44 S; -38.16 W Pojuca BA
2021.07.12 11:56:00 2.0* -4.99 S; -35.08 W Plataforma Continental RN
2021.07.12 04:56:00 2.0 -4.99 S; -35.08 W Plataforma Continental RN
2021.07.11 15:51:17 1.6* -3.73 S; -39.27 W Umirim CE
2021.07.10 05:13:05 2.3* -11.21 S; -40.53 W Jacobina BA
2021.07.09 20:04:00 1.8* -3.83 S; -40.53 W Cariré CE
2021.07.09 16:15:00 2.0* -5.44 S; -36.13 W Jandaíra RN
2021.07.08 14:15:42 1.6 -5.72 S; -37.52 W Caraúbas RN
2021.07.07 20:04:36 1.6* -11.59 S; -39.74 W Capela do Alto Alegre BA
2021.07.07 00:05:00 1.6* -11.64 S; -40.02 W Várzea da Roça BA
2021.07.06 19:08:42 2.0* -10.23 S; -39.28 W Monte Santo BA
2021.07.06 04:47:01 1.5* -3.66 S; -40.41 W Sobral CE
2021.07.05 19:36:34 1.6* -5.19 S; -37.91 W Limoeiro do Norte CE
2021.07.04 20:24:03 2.0* -4.37 S; -39.86 W Santa Quitéria CE
2021.07.03 17:58:25 1.6* -8.08 S; -36.96 W Sertânia PE
2021.07.03 16:06:40 1.9* -3.65 S; -40.10 W Sobral CE
2021.07.02 21:45:35 1.8* -8.84 S; -36.44 W Garanhus PE
2021.07.02 20:45:50 1.8* -5.53 S; -36.08 W Pedra Preta RN
2021.07.02 14:48:00 1.5* -3.82 S; -40.41 W Sobral CE
2021.07.02 14:39:42 1.6* -3.82 S; -40.41 W Sobral CE
2021.07.02 03:32:18 1.7* -10.13 S; -39.35 W Monte Santo BA
2021.07.01 20:02:17 1.6* -3.93 S; -38.76 W Maranguape CE
2021.07.01 19:46:04 2.0* -11.82 S; -40.84 W Tapiramutá BA

 

Última atualização em 02/08/2021 às 15:20 hora local. Obs.: A hora dos tremores está em UTC, são 3 horas a mais da hora local.* Magnitude não revisada/preliminar  

 

Boletim de eventos Sísmicos registrados pelo LabSis na região Nordeste em Junho de 2021 com magnitude maior ou igual a 1.5

 

Data Hora UTC Magnitude Coordenadas Local
2021.06.28 06:01:57 2.0* -5.67 S; -37.54 W Caraúbas RN
2021.06.27 22:44:17 2.0* -11.22 S; -40.48 W Jacobina BA
2021.06.26 17:55:46 1.5* -5.82 S; -37.51 W Caraúbas RN
2021.06.24 06:45:00 1.8* -11.16 S; -40.57 W Jacobina BA
2021.06.24 02:27:30 2.7* -5.70 S; -37.49 W Caraúbas RN
2021.06.21 19:50:19 1.7* -7.72 S; -36.78 W Sumé PE
2021.06.18 14:46:50 1.8* -9.50 S; -38.56 W Paulo Afonso BA
2021.06.18 01:36:00 1.9* -12.37 S; -37.98 W Itanagra BA
2021.06.17 20:22:48 2.0* -11.93 S; -40.83 W Tapiramuta BA
2021.06.15 18:09:21 1.7* -11.19 S; -40.44 W Jacobina BA
2021.06.14 04:51:54 1.5* -5.09 S; -39.44 W Quixeramobim CE
2021.06.10 17:16:55 2.5* -7.02 S; -42.40 W Oeiras PI
2021.06.10 16:13:00 1.9* -7.24 S; -37.81 W Olho Dágua PB
2021.06.10 12:06:00 1.6* -9.79 S; -37.33 W Pão de Açúcar AL
2021.06.10 08:06:00 1.6* -11.23 S; -40.51 W Jacobina BA
2021.06.10 01:40:00 1.6* -11.13 S; -40.52 W Jacobina BA
2021.06.08 18:56:25 2.0* -11.36 S; -38.9 W Araci BA
2021.06.07 10:08:00 2.4* -3.89 S; -39.52 W Tejuçuoca CE
2021.06.06 02:06:00 1.8* -12.14 S; -40.74 W Ruy Barbosa BA
2021.06.04 14:42:45 1.6* -5.20 S; -36.09 W Banabuiú CE
2021.06.04 14:21:00 2.0* -5.77 S; -37.54 W Caraúbas RN
2021.06.03 17:56:23 2.0* -5.62 S; -42.9 W Parnarama PI
2021.06.03 14:56:51 1.5* -7.88 S; -37.49 W Afogados PE
2021.06.02 21:38:09 1.5* -5.66 S; -37.48 W Caraúbas RN
2021.06.01 19:02:22 1.7* -8.83 S; -36.41 W Garanhus PE
2021.06.01 18:56:45 1.5* -5.45 S; -36.08 W Lajes RN
2021.06.01 18:50:00 1.6* -8.19 S; -36.21 W Brejo da Madre de Deus PE

 

Última atualização em 30/06/2021 às 10:00 hora local. Obs.: A hora dos tremores está em UTC, são 3 horas a mais da hora local.* Magnitude não revisada/preliminar 

 

Boletim de eventos Sísmicos registrados pelo LabSis na região Nordeste em Maio de 2021 com magnitude maior ou igual a 1.5

 

Data Hora UTC Magnitude Coordenadas Local
2021.05.30 07:03:26 1.4* -4.10 S; -38.90 W Palmácia CE
2021.05.29 15:30:19 1.6* -4.10 S; -38.91 W Palmácia CE
2021.05.28 05:43:00 1.5* -4.28 S; -38.43 W Chorozinho CE
2021.05.28 05:15:04 1.6* -5.57 S; -39.82 W Pedra Branca CE
2021.05.28 21:33:00 1.7* -3.81 S; -40.15 W Forquilha CE
2021.05.27 14:58:43 1.5* -9.68 S; -36.70 W Craíbas AL
2021.05.24 20:31:57 1.4* -9.60 S; -39.81 W Curaçá BA
2021.05.23 16:46:00 1.9* -13.37 S; -39.54 W Ubaiara BA
2021.05.23 00:25:00 1.5* -10.33 S; -39.85 W Andorinha BA
2021.05.21 15:31:54 1.4* -10.73 S; -37.93 W Poço Verde SE
2021.05.21 15:19:59 1.8* -10.77 S; -39.43 W Nordestina BA
2021.05.21 14:56:35 1.7* -5.04 S; -37.76 W Baraúna CE
2021.05.21 05:32:00 1.5* -4.91 S; -38.32 W Russas CE
2021.05.19 19:01:00 1.4* -10.67 S; -37.36 W Malhador SE
2021.05.19 17:43:28 1.6* -11.53 S; -39.07 W Teofilândia BA
2021.05.19 15:31:00 1.6* -10.68 S; -37.36 W Malhador SE
2021.05.19 14:40:06 1.5* -3.36 S; -39.26 W Trairi CE
2021.05.18 19:16:47 1.9* -13.67 S; -38.44 W Costa da Bahia BA
2021.05.18 05:23:00 1.8* -13.06 S; -39.56 W Amargosa BA
2021.05.17 23:27:34 1.8* -13.07 S; -39.55 W Amargosa BA
2021.05.15 15:42:00 1.7* -4.82 S; -39.11 W Choró CE
2021.05.14 18:42:00 4.3* -1.14 S; -50.62 W Breves PA
2021.05.14 18:00:18 1.7* -5.79 S; -36.16 W Lajes RN
2021.05.13 12:58:08 1.5* -6.73 S; -36.54 W Parelhas RN
2021.05.12 17:11:22 1.6* -5.66 S; -36.09 W Lajes RN
2021.05.12 15:58:11 1.6* -5.59 S; -35.12 W Pedra Preta RN
2021.05.12 03:13:53 1.4* -5.72 S; -35.49 W Caraúbas RN
2021.05.12 02:17:13 1.9* -4.04 S; -39.32 W Paramoti CE
2021.05.11 19:59:12 1.6* -8.41 S; -37.23 W Sertânia PE
2021.05.11 02:14:59 1.7* -8.14 S; -34.93 W Jaboatão dos Guararapes PE
2021.05.10 20:50:00 1.8* -4.33 S; -38.24 W Beberibe CE
2021.05.10 18:39:18 1.9* -11.90 S; -39.79 W Pintadas BA
2021.05.10 13:45:00 2.0* -11.22 S; -40.48 W Jacobina BA
2021.05.10 12:47:00 2.0* -11.17 S; -40.57 W Jacobina BA
2021.05.10 11:40:33 1.4* -15.08 S; -40.26 W Itororó BA
2021.05.09 12:19:53 1.6* -11.65 S; -40.26 W Mairi BA
2021.05.09 01:51:13 1.7* -8.22 S; -35.64 W Gravatá PE
2021.05.07 12:43:30 1.5* -9.79 S; -37.33 W Pão de Açúcar AL
2021.05.06 20:02:10 1.5* -8.06 S; -34.98 W Jaboatão dos Guararapes PE
2021.05.06 13:21:14 2.0* -3.87 S; -38.89 W Maranguape CE
2021.05.05 20:35:49 1.5* -8.81 S; -36.47 W Garanhus PE
2021.05.05 19:26:28 1.5* -9.61 S; -38.54 W Paulo Afonso BA
2021.05.04 20:36:03 1.9* -14.13 S; -39.61 W Ipiaú BA
2021.05.04 20:25:00 1.8* -5.66 S; -36.18 W Pedra Preta RN
2021.05.04 20:00:56 1.5* -10.43 S; -38.92 W Euclides da Cunha BA
2021.05.04 20:00:48 1.5* -12.07 S; -39.02 W Santa Bárbara BA
2021.05.04 19:20:23 1.4* -7.05 S; -36.48 W Juazeirinho PB
2021.05.04 04:10:00 1.5* -5.64 S; -36.1 W Pedra Preta RN
2021.05.03 19:48:26 1.4* -3.92 S; -40.13 W Forquilha CE
2021.05.01 16:08:01 2.5* -14.16 S; -39.69 W Ipiaú BA
2021.05.01 14:43:31 1.6* -6.01 S; -36.87 W Jucurutu RN
2021.05.01 08:26:00 1.4* -13.07 S; -39.51 W Amargosa BA

Última atualização em 08/06/2021 às 13:30 hora local. Obs.: A hora dos tremores está em UTC, são 3 horas a mais da hora local.* Magnitude não revisada/preliminar   

 

Boletim de eventos Sísmicos registrados pelo LabSis na região Nordeste em Abril de 2021 com magnitude maior ou igual a 1.5


Data Hora UTC Magnitude Coordenadas Local
2021.04.30 19:00:05 1.7* -5.78 S; -36.15 W Lajes RN
2021.04.30 15:36:15 1.8* -5.13 S; -37.93 W Quixeré CE
2021.04.29 20:16:07 1.8* -11.30 S; -39.39 W Santa Luz BA
2021.04.29 08:43:00 1.8* -4.35 S; -38.33 W Cascavel CE
2021.04.29 05:47:00 1.8 -5.57 S; -36.17 W Pedra Preta RN
2021.04.28 19:38:27 1.6* -7.45 S; -34.90 W Pitimbi PB
2021.04.28 18:08:03 1.9* -10.36 S; -37.42 W Nossa Senhora da Glória SE
2021.04.28 14:14:29 1.7* -5.73 S; -37.47 W Caraúbas RN
2021.04.27 11:06:00 1.8* -5.13 S; -39.42 W Quixeramobim CE
2021.04.27 11:05:45 2.0* -5.15 S; -39.41 W Quixeramobim CE
2021.04.26 21:03:51 1.6* -7.99 S; -35.78 W Frei Miguelinho PE
2021.04.26 18:17:06 2.1* -14.17 S; -39.80 W Ipiaú BA
2021.04.24 20:38:23 1.8* -6.50 S; -39.53 W Jucás CE
2021.04.24 00:59:00 1.9* -3.98 S; -39.15 W Pentecoste CE
2021.04.23 20:02:13 2.1* -14.12 S; -39.14 W Maraú BA
2021.04.23 15:29:30 1.7* -10.79 S; -37.23 W Laranjeiras SE
2021.04.22 13:20:20 2.4* -4.34 S; -38.36 W Cascavel CE
2021.04.22 14:06:32 1.5* -4.04 S; -38.57 W Guaiuba CE
2021.04.21 17:06:51 1.7* -9.79 S; -39.72 W Curaçá BA
2021.04.20 15:51:00 1.7* -8.14 S; -36.36 W Brejo da Madre de Deus PE
2021.04.20 15:18:00 1.8* -5.74 S; -37.54 W Caraúbas RN
2021.04.19 20:48:07 1.5* -7.47 S; -34.75 W Costa da Paraíba Pitimbu PB
2021.04.19 19:59:05 2.2* -14.14 S; -39.64 W Ipiaú BA
2021.04.19 18:09:00 2.3* -8.42 S; -35.84 W São Joaquim dos Montes PE
2021.04.19 07:10:40 1.8* -5.69 S; -37.48 W Caraúbas RN
2021.04.15 05:55:53 2.1* -12.58 S; -38.19 W Dias d'Ávila BA
2021.04.14 19:58:00 2.4* -14.15 S; -39.52 W Ipiaú BA
2021.04.13 15:23:00 1.7* -8.49 S; -35.95 W Agrestina PE
2021.04.13 04:09:29 1.7* -5.08 S; -37.74 W Quixeré CE
2021.04.12 23:02:00 1.6* -3.40 S; -40.77 W Uruoca CE
2021.04.11 21:41:00 1.6* -4.33 S; -38.41 W Chorozinho CE
2021.04.10 20:51:37 2.2* -6.57 S; -37.18 W Patos PB
2021.04.10 15:51:33 2.0* -7.01 S; -37.33 W Patos PB
2021.04.10 11:02:36 1.5* -7.16 S; -36.05 W Pocinhos PB
2021.04.08 15:29:00 2.0* -8.11 S; -35.08 W Moreno PE
2021.04.08 15:27:00 1.5* -5.72 S; -37.51 W Caraúbas RN
2021.04.07 15:57:02 2.3* -13.61 S; -40.24 W Maracas BA
2021.04.06 20:02:28 1.7* -11.07 S; -40.49 W Caldeirão Grande BA
2021.04.06 02:27:03 1.9* -8.07 S; -35.25 W Vitória de Santo Antão PE
2021.04.05 18:36:57 2.3* -10.26 S; -37.71 W Carira SE
2021.04.05 16:59:25 1.5* -7.27 S; -35.91 W Campina Grande PB
2021.04.05 13:13:23 1.9* -9.54 S; -37.28 W Olho dÁgua das Flores AL
2021.04.04 19:06:00 1.7* -11.24 S; -40.62 W Jacobina BA
2021.04.02 19:57:09 1.6* -6.63 S; -38.90 W Cedro PE
2021.04.02 19:11:00 1.9* -8.17 S; -34.94 W Jaboatão dos Guararapes PE
2021.04.01 18:10:00 2.1* -14.15 S; -39.49 W Ubatã BA
2021.04.01 17:11:00 2.2* -13.69 S; -40.65 W Maracas BA


Última atualização em 01/05/2021 às 13:10 hora local. Obs.: A hora dos tremores está em UTC, são 3 horas a mais da hora local.* Magnitude não revisada/preliminar   

 

Boletim de eventos Sísmicos registrados pelo LabSis na região Nordeste em Março de 2021 com magnitude maior ou igual a 1.50

Data Hora UTC Magnitude Coordenadas Local
2021.03.30 02:24:00 2.1* -8.22 S; -35.12 W Cabo de São Agostinho PE
2021.03.29 20:31:33 1.5* -8.46 S; -37.10 W Arcoverde PE
2021.03.27 21:39:00 2.1* -5.63 S; -37.37 W Caraúbas RN
2021.03.27 21:35:37 2.7* -5.70 S; -37.51 W Caraúbas RN
2021.03.27 15:26:00 2.1* -14.16 S; -39.35 W Ibirapitamga BA
2021.03.26 11:11:00 1.6* -5.73 S; -37.36 W Caraúbas RN
2021.03.26 11:05:00 2.3* -5.66 S; -37.48 W Caraúbas RN
2021.03.26 05:37:00 2.1* -8.48 S; -35.06 W Ipojuca PE
2021.03.25 21:01:20 1.6* -8.08 S; -35.27 W Vitória de Santo Antão PE
2021.03.24 13:01:17 1.7* -5.72 S; -37.46 W Caraúbas RN
2021.03.22 01:52:00 1.7* -10.20 S; -40.34 W Jaguarari BA
2021.03.21 20:47:00 1.6* -5.84 S; -37.57 W Caraúbas RN
2021.03.20 03:54:00 2.2* -14.21 S; -39.83 W Itagibá BA
2021.03.19 17:00:00 2.1* -13.69 S; -40.56 W Maracas BA
2021.03.19 14:59:00 1.7* -3.59 S; -40.17 W Sobral CE
2021.03.19 14:45:00 2.1* -13.69 S; -40.56 W Maracas BA
2021.03.18 21:07:00 1.7* -11.15 S; -40.47 W Jacobina BA
2021.03.18 19:36:00 2.2* -11.24 S; -40.41 W Jacobina BA
2021.03.18 15:12:11 1.5* -9.66 S; -36.73 W Craíbas AL
2021.03.15 20:01:29 2.1* -14.41 S; -38.85 W Costa da Bahia BA
2021.03.14 14:22:32 1.8* -5.59 S; -35.23 W Ceará-Mirim RN
2021.03.14 05:42:04 2.1* -9.67 S; -36.32 W Anadia AL
2021.03.14 02:17:00 1.6* -5.71 S; -37.47 W Caraúbas RN
2021.03.12 18:18:16 1.7* -14.84 S; -40.35 W Caatiba BA
2021.03.12 14:37:58 2.1* -11.12 S; -40.77 W Jacobina BA
2021.03.11 15:09:17 1.7* -9.67 S; -36.74 W Craíbas AL
2021.03.11 01:30:00 1.9* -11.35 S; -40.54 W Jacobina BA
2021.03.10 20:00:00 1.8* -3.56 S; -40.59 W Santana do Acaraú CE
2021.03.10 18:53:00 2.0* -10.81 S; -37.55 W São Domingos SE
2021.03.08 20:23:15 1.8* -7.17 S; -35.28 W Cajá PB
2021.03.08 04:52:41 1.8* -5.70 S; -37.47 W Caraúbas RN
2021.03.07 23:17:52 2.7* -5.73 S; -37.51 W Caraúbas RN
2021.03.07 22:44:00 1.7* -6.08 S; -38.02 W Portalegre RN
2021.03.07 07:36:00 1.9* -5.41 S; -36.12 W Pedra Preta RN
2021.03.07 06:23:00 1.9* -5.48 S; -36.10 W Pedra Preta RN
2021.03.06 13:28:00 1.8* -5.54 S; -36.15 W Pedra Preta RN
2021.03.04 15:40:26 2.0* -9.78 S; -40.01 W Jaguarari BA
2021.03.04 06:34:00 2.1* -5.54 S; -36.16 W Pedra Preta RN
2021.03.04 02:26:00 2.5* -5.56 S; -36.14 W Pedra Preta RN
2021.03.03 19:55:00 1.7* -5.54 S; -36.06 W Pedra Preta RN
2021.03.03 16:22:40 1.5* -5.54 S; -36.06 W Pedra Preta RN
2021.03.03 16:03:00 1.9* -5.54 S; -36.06 W Pedra Preta RN
2021.03.03 14:25:00 1.5* -5.54 S; -36.06 W Pedra Preta RN
2021.03.03 14:19:00 1.5* -5.54 S; -36.06 W Pedra Preta RN
2021.03.03 14:14:00 3.0 -5.53 S; -36.13 W Pedra Preta RN
2021.03.03 14:06:30 1.7* -5.54 S; -36.06 W Pedra Preta RN
2021.03.03 13:40:00 1.5* -5.54 S; -36.06 W Pedra Preta RN
2021.03.03 13:26:00 1.6* -5.54 S; -36.06 W Pedra Preta RN
2021.03.03 12:58:00 3.0* -5.51 S; -36.10 W Pedra Preta RN
2021.03.03 12:24:00 1.5* -5.54 S; -36.06 W Pedra Preta RN
2021.03.03 10:24:00 2.9* -5.46 S; -36.11 W Pedra Preta RN
2021.03.03 09:37:35 3.3* -5.46 S; -36.09 W Pedra Preta RN
2021.03.03 09:26:00 3.2* -5.48 S; -36.10 W Pedra Preta RN
2021.03.03 08:36:56 2.5* -5.58 S; -36.16 W Pedra Preta RN
2021.03.03 06:49:12 1.5* -5.54 S; -36.06 W Pedra Preta RN
2021.03.03 03:43:26 3.1* -16.94 S; -38.08 W Sul do Oceano Atlântico
2021.03.03 03:35:17 3.5* -16.89 S; -37.32 W Sul do Oceano Atlântico
2021.03.02 20:05:00 1.8* -7.33 S; -36.10 W Pedras de Fogo PB
2021.03.02 01:57:54 1.9* -5.09 S; -39.49 W Quixeramobim CE
2021.03.01 18:30:06 1.9* -10.61 S; -39.42 W Cansanção BA

 


Obs.: A hora dos tremores está em UTC, são 3 horas a mais da hora local.* Magnitude não revisada/preliminar  

 
Última atualização em 31/03/2021 às 22:50 hora local

 

Boletim de eventos Sísmicos registrados pelo LabSis na região Nordeste em Fevereiro de 2021 com magnitude maior ou igual a 1.50

Data Hora UTC Magnitude Coordenadas Local
2021.02.27 02:03:00 1.9* -4.93 S; -39.47 W Quixeramobim CE
2021.02.27 00:57:00 1.7* 4.94 S; -39.48 W Quixeramobim CE
2021.02.27 00:37:00 1.9* 4.96 S; -39.49 W Quixeramobim CE
2021.02.26 18:12:01 2.5* -10.94 S; -39.41 W Nordestina BA
2021.02.26 14:57:05 1.9* -3.87 S; -40.54 W Cariré CE
2021.02.26 06:56:45 1.7* -8.03 S; -35.20 W Brejo da Madre de Deus PE
2021.02.26 04:49:00 1.6* -6.05 S; -37.96 W Martins RN
2021.02.25 16:19:32 1.6* -5.16 S; -39.53 W Quixeramobim CE
2021.02.25 15:02:00 1.6* -5.76 S; -37.46 W Caraúbas RN
2021.02.24 01:38:00 1.6* -5.84 S; -37.45 W Caraúbas RN
2021.02.23 16:17:02 2.2* -14.15 S; -39.24 W Marau BA
2021.02.23 15:39:00 2.1* -5.72 S; -37.5 W Caraúbas RN
2021.02.23 14:34:00 1.7* -5.67 S; -37.51 W Caraúbas RN
2021.02.23 00:29:00 1.7* -5.74 S; -37.51 W Caraúbas RN
2021.02.22 19:14:00 2.4* -5.71 S; -37.48 W Caraúbas RN
2021.02.22 05:15:31 1.9* -5.75 S; -37.42 W Caraúbas RN
2021.02.21 21:41:00 1.7* -5.75 S; -37.45 W Caraúbas RN
2021.02.21 13:33:00 2.5* -5.72 S; -37.48 W Caraúbas RN
2021.02.21 06:26:00 2.2* -5.72 S; -37.49 W Caraúbas RN
2021.02.21 05:51:00 2.1* -5.73 S; -37.51 W Caraúbas RN
2021.02.21 05:08:00 2.3* -5.72 S; -37.5 W Caraúbas RN
2021.02.20 19:18:00 2.3* -5.62 S; -37.48 W Caraúbas RN
2021.02.20 08:40:00 1.7* -5.43 S; -36.12 W Jandaira RN
2021.02.19 12:13:00 1.7* -9.71 S; -39.09 W Batalha AL
2021.02.19 08:40:00 1.7* -5.26 S; -36.16 W Jandaira RN
2021.02.19 08:10:00 1.5* -5.23 S; -36.13 W Jandaira RN
2021.02.18 23:12:00 1.5* -8.19 S; -35.91 W Caruaru PE
2021.02.18 20:01:00 1.5* -10.88 S; -34.41 W Nordestina BA
2021.02.18 15:26:00 1.5* -9.68 S; -36.74 W Craíbas AL
2021.02.18 15:19:00 1.6* -9.64 S; -36.8 W Craíbas AL
2021.02.18 14:31:00 1.9* -10.90 S; -40.61 W Mirangaba BA
2021.02.17 14:27:36 2.0* -8.23 S; -36.05 W Caruaru PE
2021.02.16 15:02:00 1.6* -10.83 S; -39.41 W Nordestina BA
2021.02.16 09:37:00 1.6* -9.86 S; -39.95 W Jaguarari BA
2021.02.15 20:08:00 1.8* -10.20 S; -37.01 W Canhoba SE
2021.02.10 04:12:58 1.6* -4.36 S; -38.43 W Cascavel CE
2021.02.09 06:32:39 1.6* -4.37 S; -38.45 W Cascavel CE
2021.02.09 08:47:00 1.8* -4.37 S; -38.38 W Cascavel CE
2021.02.08 04:44:02 1.9* -4.42 S; -38.48 W Cascavel CE
2021.02.07 15:40:03 2.2* -4.37 S; -38.41 W Cascavel CE
2021.02.03 02:07:01 2.7* -11.22 S; -40.56 W Jacobina BA
2021.02.03 01:18:00 1.7* -11.22 S; -40.56 W Jacobina BA

 

* Magnitude não revisada/preliminar 

Obs.: A hora dos tremores está em UTC, são 3 horas a mais da hora local.
 
Última atualização em 03/03/2021 às 12:40 hora local

 

Boletim de eventos Sísmicos registrados pelo LabSis na região Nordeste em Janeiro de 2021 com magnitude maior ou igual a 1.50

 

Data Hora UTC Magnitude Coordenadas Local
2021.01.31 15:24:00 2.6* -9.85 S; -39.80 W Jaguarari BA
2021.01.30 00:25:00 1.5* -6.01 S; -37.99 W Portalegre RN
2021.01.30 00:47:00 1.5* -5.96 S; -37.99 W Portalegre RN
2021.01.28 15:16:00 1.7* -9.87 S; -36.96 W Traipu AL
2021.01.28 10:17:53 2.4* -10.03 S; -39.75 W Monte Santo BA
2021.01.27 08:27:00 1.5* -4.06 S; -39.31 W Paramoti CE
2021.01.27 03:53:00 1.5* -4.32 S; -38.37 W Chorozinho CE
2021.01.26 18:01:12 2.4* -8.60 S; -35.93 W Cupira PE
2021.01.26 07:46:10 1.6* -11.14 S; -40.58 W Jacobina BA
2021.01.26 04:05:00 2.6* -2.95 S; -40.58 W Camocim CE
2021.01.25 06:07:53 2.6* -11.14 S; -40.58 W Jacobina BA
2021.01.24 04:23:31 1.8* -10.14 S; -36.92 W Canhoba SE
2021.01.22 23:38:33 1.6* -5.72 S; -37.46 W Caraúbas RN
2021.01.22 17:01:12 2.7* -5.70 S; -37.47 W Caraúbas RN
2021.01.21 02:20:20 1.5* -5.55 S; -36.13 W Pedra Preta RN
2021.01.20 21:29:30 2.3* -5.46 S; -36.05 W Pedra Preta RN
2021.01.15 22:36:37 2.0* -5.09 S; -39.47 W Quixeramobim CE
2021.01.15 19:23:50 2.0* -5.09 S; -39.47 W Quixeramobim CE
2021.01.15 19:08:45 2.0* -5.09 S; -39.47 W Quixeramobim CE
2021.01.15 19:06:08 2.0* -5.09 S; -39.47 W Quixeramobim CE
2021.01.15 19:05:16 2.0* -5.09 S; -39.47 W Quixeramobim CE
2021.01.15 17:45:00 2.1* -5.00 S; -39.37 W Quixeramobim CE
2021.01.15 15:19:06 2.0* -5.09 S; -39.47 W Quixeramobim CE
2021.01.14 19:38:25 1.5* -6.90 S; -38.02 W Sousa PB
2021.01.13 07:41:47 1.7* -8.30 S; -36.02 W Caruaru PE
2021.01.11 23:38:30 1.6 -5.72 S; -37.46 W Caraúbas RN
2021.01.10 11:19:24 1.9* -4.08 S; -39.30 W Paramoti CE
2021.01.07 02:46:29 2.0* -3.56 S; -40.30 W Massapê CE

 

* Magnitude não revisada/preliminar
Obs.: A hora dos tremores está em UTC, são 3 horas a mais da hora local.
 
Última atualização em 01/02/2021 às 23:56 hora local

 

 

 

 

 

 

 

 

 

 

 

Boletins de 2020, a partir de Maio.

 

Boletim de eventos Sísmicos registrados pelo LabSis na região Nordeste em Maio de 2020 com magnitude maior ou igual a 1.50

 

Data Hora UTC Magnitude Coordenadas Local
2020.06.01 05:08:30 2.8* -10.90 S; -37.91 W Lagarto SE
2020.05.31 13:02:54 1.6* -3.13 S; -40.56 W Granja CE
2020.05.29 19:37:59 1.6* -5.68 S; -37.48 W Caraúbas RN
2020.05.29 15:29:14 1.7* -4.34 S; -40.35 W Hidrolândia CE
2020.05.27 04:52:23 1.5* -3.09 S; -40.57 W Granja CE
2020.05.27 02:20:27 1.8* -5.94 S; -37.37 W Campo Grande RN
2020.05.25 15:04:57 1.6* -6.63 S; -39.24 W Várzea Alegre CE
2020.05.24 07:34:04 1.7* -5.73 S; -36.95 W Açu RN
2020.05.18 04:45:13 2.0 -5.68 S; -37.48 W Caraúbas RN
2020.05.14 21:24:54 1.8* -5.68 S; -37.48 W Caraúbas RN
2020.05.11 04:20:05 1.6* -5.39 S; -40.71 W Crateús CE
2020.05.11 04:20:05 1.6* -5.36 S; -40.65 W Crateús CE
2020.05.10 01:34:36 1.6* -4.35 S; -38.23 W Cascavel CE
2020.05.08 10:14:00 1.8* -4.72 S; -38.10 W Palhano CE
2020.05.07 14:18:06 1.6* -3.92 S; -40.19 W Serra da Meruoca CE
2020.05.06 01:26:46 1.6* -3.66 S; -40.45 W Sobral CE
2020.05.05 14:17:15 2.0* -4.29 S; -39.76 W Sobral CE
2020.05.03 13:16:08 2.3* -5.06 S; -39.49 W Quixeramobim CE
 
 
Boletim de eventos Sísmicos registrados pelo LabSis na região Nordeste em Junho de 2020 com magnitude maior ou igual a 1.50
 
Data Hora UTC Magnitude Coordenadas Local
2020.06.29 20:07:54 1.8* -3.91 S; -40.41 W Groaíras CE
2020.06.29 06:51:26 1.7* -3.38 S; -40.17 W Santana do Acaraú CE
2020.06.28 02:23:04 1.5* -3.19 S; -40.53 W Marco CE
2020.06.20 20:07:41 1.8* -3.91 S; -40.41 W Groaíras CE
2020.06.10 19:56:10 1.8* -5.70 S; -37.47 W Caraúbas RN
2020.06.10 02:49:53 1.6* -5.70 S; -37.52 W Caraúbas RN
2020.06.06 07:13:13 1.6 -5.75 S; -36.30 W Lajes RN
2020.06.01 05:08:30 2.8* -10.90 S; -37.91 W Lagarto SE
 
Boletim de eventos Sísmicos registrados pelo LabSis na região Nordeste em Julho de 2020 com magnitude maior ou igual a 1.50
 
 
Data Hora UTC Magnitude Coordenadas Local
2020.07.29 08:19:00 3.5* -15.06 S; -38.15 W Litoral da Baía BA
2020.07.25 20:24:00 2.4* -8.73 S; -36.34 W Jurema PE
2020.07.25 20:24:00 2.4* -8.61 S; -36.37 W São Bento do Una PE
2020.07.25 17:06:25 2.4* -3.63 S; -35.18 W Plat. Continental  RN - CE
2020.07.24 18:37:01 1.8* -8.57 S; -37.49 W Ibimirim PE
2020.07.24 15:01:16 2.1* -10.04 S; -36.56 W Igreja Nova AL
2020.07.18 18:40:49 2.0* -8.36 S; -36.10 W São Caetano PE
2020.07.13 03:29:43 1.6* -5.76 S; -37.53 W Caraúbas RN
2020.07.10 15:02:30 1.9* -9.88 S; -36.27 W Campo Alegre AL
2020.07.09 09:53:31 1.9* -8.29 S; -36.01 W Caruaru PE
2020.07.07 23:22:26 2.5 -4.32 S; -38.38 W Cascavel/ Chorozinho CE
2020.07.04 14:35:37 1.7* -3.06 S; -40.75 W Bela Cruz CE
2020.07.03 05:32:39 1.9* -5.69 S; -37.52 W Caraúbas RN
 
 
 Boletim de eventos Sísmicos registrados pelo LabSis na região Nordeste em Agosto de 2020 com magnitude maior ou igual a 1.50
 
 
Data Hora UTC Magnitude Coordenadas Local
2020.08.31 17:26:20 2.0* -3.45 S; -39.99 W Santana do Acaraú CE
2020.08.31 15:36:52 2.7* -3.56 S; -40.71 W Coreaú CE
2020.08.31 07:27:00 1.7* -5.65 S; -36.20 W Pedra Preta RN
2020.08.31 06:41:50 3.6* -13.00 S; -39.58 W Amargosa BA
2020.08.30 21:11:47 1.8* -13.04 S; -39.39 W Amargosa BA
2020.08.30 21:09:22 1.9* -13.00 S; -39.58 W Amargosa BA
2020.08.30 20:12:00 2.6* -13.00 S; -39.58 W Amargosa BA
2020.08.30 13:42:30 1.8* -13.00 S; -39.58 W Amargosa BA
2020.08.30 13:41:43 1.6* -13.01 S; -39.60 W Amargosa BA
2020.08.30 12:21:57 1.8* -13.00 S; -39.58 W Amargosa BA
2020.08.30 12:21:48 1.8* -13.01 S; -39.60 W Amargosa BA
2020.08.30 12:11:48 1.9* -13.00 S; -39.58 W Amargosa BA
2020.08.30 12:08:26 2.0* -13.00 S; -39.58 W Amargosa BA
2020.08.30 12:08:14 2.3* -13.01 S; -39.60 W Amargosa BA
2020.08.30 11:57:09 2.8* -13.01 S; -39.61 W Amargosa BA
2020.08.30 11:48:53 1.9* -13.00 S; -39.58 W Amargosa BA
2020.08.30 11:25:20 2.3* -13.00 S; -39.58 W Amargosa BA
2020.08.30 11:18:07 3.7* -13.01 S; -39.58 W Amargosa BA
2020.08.30 10:44:28 4.2* -13.00 S; -39.60 W Amargosa BA
2020.08.30 10:43:44 2.5* -13.01 S; -39.58 W Amargosa BA
2020.08.29 05:23:29 1.7 -5.49 S; -36.08 W Pedra Preta RN
2020.08.27 11:01:45 1.7* -8.30 S; -36.04 W Caruaru PE
2020.08.27 06:19:14 1.8* -8.30 S; -36.04 W Caruaru PE
2020.08.27 06:18:51 1.6* -8.26 S; -36.02 W Caruaru PE
2020.08.27 06:01:52 1.9* -8.26 S; -36.02 W Caruaru PE
2020.08.26 14:47:43 1.7* -3.91 S; -39.46 W Teijuçuoca CE
2020.08.26 07:06:45 1.6* -3.62 S; -40.44 W Serra da Meruoca CE
2020.08.25 03:23:09 4.0* 5.27 S; -38.87 W Margem Continental MA/PI/CE
2020.08.25 02:12:14 1.7* -8.29 S; -36.03 W Caruaru PE
2020.08.24 00:57:41 1.9* -3.92 S; -40.40 W Groaíras CE
2020.08.23 09:27:19 1.5* -8.30 S; -36.03 W Caruaru PE
2020.08.23 09:26:57 1.6* -8.26 S; -36.02 W Caruaru PE
2020.08.19 21:51:02 1.6* -12.60 S; -38.98 W São Felix BA
2020.08.17 09:06:11 1.8* -3.76 S; -39.75 W Irauçuba CE
2020.08.17 02:24:00 1.8 -5.65 S; -36.20 W Pedra Preta RN
2020.08.15 07:09:21 1.9* -5.46 S; -36.10 W Pedra Preta RN
2020.08.13 03:37:05 1.6* -3.23 S; -40.20 W Marco CE
2020.08.12 19:32:57 1.7* -5.90 S; -35.99 W Ruy Barbosa RN
2020.08.12 12:59:26 1.6* -5.87 S; -35.98 W Ruy Barbosa RN
2020.08.08 14:41:11 1.6* -5.59 S; -36.15 W Pedra Preta RN
2020.08.07 01:43:28 1.8* -11.30 S; -39.13 W Araci BA
2020.08.05 20:18:09 1.9* -8.58 N; -35.83 E Belém de Maria PE
2020.08.04 17:03:41 2.0* -8.67 S; -36.31 W Lajedo PE
2020.08.04 16:59:07 2.0* -8.72 S; -36.31 W Lajedo PE
2020.08.01 23:55:24 1.9* -15.15 S; -40.07 W Itororó BA
 
Boletim de eventos Sísmicos registrados pelo LabSis na região Nordeste em Setembro de 2020 com magnitude maior ou igual a 1.50
 
 
Data Hora UTC Magnitude Coordenadas Local
2020.09.29 02:28:00 2.0* -2.96 S; -40.61 W Camocim CE
2020.09.26 06:03:21 2.1* -5.54 S; -36.05 W Pedra Preta RN
2020.09.24 02:34:33 1.6* -8.24 S; -36.04 W Caruaru PE
2020.09.23 05:31:17 2.0* -8.29 S; -36.03 W Caruaru PE
2020.09.22 01:28:31 1.7* -8.32 S; -35.93 W Caruaru PE
2020.09.21 05:00:41 1.8* -5.47 S; -35.89 W Pedra Preta RN
2020.09.19 09:06:06 2.5* -3.10 S; -41.21 W Chaval CE
2020.09.17 14:43:37 1.8* -10.16 S; -37.01 W Canhoba SE
2020.09.14 18:44:40 2.3* -10.99 S; -39.45 W Queimadas BA
2020.09.12 02:29:10 2.4* -5.48 S; -36.07 W Pedra Preta RN
2020.09.11 09:57:59 2.4* -8.28 S; -36.05 W Caruaru PE
2020.09.10 06:29:43 1.6* -8.28 S; -36.05 W Caruaru PE
2020.09.08 20:42:00 1.7* -8.22 S; -35.86 W Bezerros PE
2020.09.06 00:33:24 2.1* -9.84 S; -36.99 W Traipu AL
2020.09.05 20:18:21 2.2* -9.83 S; -36.98 W Traipu Al
2020.09.04 02:30:44 2.1* -10.12 S; -36.92 W Canhoba SE/AL
2020.09.03 03:11:53 1.5* -5.53 S; -36.11 W Pedra Preta RN
2020.09.02 16:36:33 1.7* -13.01 S; -39.61 W Amargosa BA
2020.09.02 02:21:57 2.1* -10.12 S; -36.53 W Canhoba SE
2020.09.02 01:01:19 2.0* -5.51 S; -36.08 W Pedra Preta RN
2020.09.01 19:27:27 1.9* -13.00 S; -39.58 W Amargosa BA
2020.09.01 17:46:15 1.8* -13.00 S; -39.58 W Amargosa BA
2020.09.01 13:25:57 2.0* -13.00 S; -39.58 W Amargosa BA
2020.09.01 11:32:45 2.4* -10.11 S; -36.94 W Canhoba SE
2020.09.01 09:37:11 2.2* -13.04 S; -39.39 W Amargosa BA
2020.09.01 06:32:21 1.8* -13.04 S; -39.39 W Amargosa BA
 
Boletim de eventos Sísmicos registrados pelo LabSis na região Nordeste em Outubro de 2020 com magnitude maior ou igual a 1.50
 

Data Hora UTC Magnitude Coordenadas Local
2020.10.30 18:24:39 1.5* -8.07 S; -37.84 W Flores PE
2020.10.30 14:43:01 1.7* -4.31 S; -39.50 W Canindé CE
2020.10.30 14:20:11 1.8* -4.03 S; -38.59 W Guaiuba CE
2020.10.29 19:34:46 2.0* -8.34 S; -36.16 W São Caetano PE
2020.10.28 11:02:47 1.8* -11.12 S; -39.91 W Jacobina BA
2020.10.28 01:03:40 1.8* -13.09 S; -39.50 W Amargosa BA
2020.10.27 18:22:14 2.0* -8.25 S; -35.95 W Caruaru PE
2020.10.27 16:25:15 2.2* -11.37 S; -40.56 W Jacobina BA
2020.10.27 16:09:14 2.3* -14.25 S; -38.79 W Mar da Bahia Ocean
2020.10.27 14:40:57 1.7* -3.63 S; -40.65 W Coreaú CE
2020.10.26 20:38:19 1.5* -3.79 S; -38.68 W Caucaia CE
2020.10.25 10:21:25 1.7* -5.12 S; -37.85 W Quixeré CE
2020.10.25 10:05:15 1.7* -10.94 S; -39.76 W Queimadas BA
2020.10.24 17:40:21 1.5* -3.72 S; -40.37 W Sobral CE
2020.10.24 15:18:29 1.6* -6.21 S; -38.95 W Orós CE
2020.10.23 14:59:55 2.0* -9.83 S; -36.69 W Arapiraca Al
2020.10.22 19:36:21 1.5* -5.66 S; -35.92 W Samambaia RN
2020.10.22 19:33:45 1.9* -8.44 S; -37.23 W Arcoverde PE
2020.10.22 14:38:52 1.5* -3.80 S; -40.53 W Groaíras CE
2020.10.22 12:37:02 1.9* -8.38 S; -35.91 W Caruaru PE
2020.10.21 11:36:57 2.3* -8.34 S; -35.96 W Caruaru PE
2020.10.19 21:48:11 2.3* -8.31 S; -36.05 W Caruaru PE
2020.10.19 02:07:37 1.8* -10.13 S; -40.02 W Jaguarari BA
2020.10.17 17:04:59 2.3* -6.52 S; -39.25 W Iguatu CE
2020.10.17 17:04:53 1.5* -6.71 S; -39.99 W Assare CE
2020.10.16 15:11:04 1.5* -3.45 S; -40.77 W Moraújo CE
2020.10.16 15:00:12 2.0* -9.75 S; -36.69 W Arapiraca AL
2020.10.15 14:56:16 1.7* -3.64 S; -40.63 W Sobral CE
2020.10.15 07:01:00 2.1* -8.79 S; -35.26 W Barreiros PE
2020.10.15 00:28:41 1.5* -8.36 S; -36.05 W Caruaru PE
2020.10.14 18:55:00 1.7* -8.26 S; -36.03 W Caruaru PE
2020.10.14 02:38:25 1.8* -8.12 S; -35.28 W Vitória de Santo Antao PE
2020.10.13 19:41:55 2.0* -8.28 S; -36.02 W Caruaru PE
2020.10.13 09:52:00 1.7* -5.58 S; -36.08 W Pedra Preta RN
2020.10.13 07:01:01 1.8 -5.53 S; -36.06 W Pedra Preta RN
2020.10.12 21:55:17 1.5* -8.31 S; -35.96 W Caruaru PE
2020.10.12 12:42:36 1.7* -8.18 S; -35.92 W Caruaru PE
2020.10.08 19:55:41 1.5* -8.50 S; -35.83 W Agrestina PE
2020.10.05 14:04:10 1.5* -4.18 S; -39.10 W Caridade CE
2020.10.02 08:24:00 1.8* -8.25 S; -35.99 W Caruaru PE
2020.10.02 00:28:41 1.5* -10.13 S; -36.99 W Canhoba SE
2020.10.01 19:35:03 2.0* -9.38 S; -35.93 W Rio Largo AL
2020.10.01 04:59:50 1.5* -8.32 S; -35.98 W Caruaru PE
 
 
Boletim de eventos Sísmicos registrados pelo LabSis na região Nordeste em Novembro de 2020 com magnitude maior ou igual a 1.50
 
 
Data Hora UTC Magnitude Coordenadas Local
2020.11.29 15:35:24 2.5* -9.89 S; -39.83 W Jaguarari BA
2020.11.21 06:35:40 1.7* -8.27 S; -36.06 W Caruaru PE
2020.11.18 15:01:56 1.5* -6.57 S; -36.38 W Picuí PB
2020.11.17 20:35:43 1.7 -8.31 S; -36.02 W Caruaru PE
2020.11.17 15:25:07 2.1 -3.66 S; -40.61 W Coreaú CE
2020.11.17 09:40:57 2.0* -8.27 S; -36.06 W Caruaru PE
2020.11.15 08:28:59 1.5* -8.30 S; -39.06 W Caruaru PE
2020.11.15 04:36:00 1.5* -8.30S; -39.06 W São Caetano PE
2020.11.13 05:30:41 1.5* -3.52 S; -40.78 W Coreaú CE
2020.11.12 09:35:33 1.9* -8.21 S; -36.03 W Caruaru PE
2020.11.11 15:41:19 1.8* -7.01 S; -37.33 W Patos PB
2020.11.11 01:53:10 1.5* -8.29 S; -36.02 W Caruaru PE
2020.11.10 19:29:44 1.5* -7.11 S; -36.4 W Juazeirinho PB
2020.11.10 18:00:26 1.8* -8.30 S; -36.05 W Caruaru PE
2020.11.10 10:33:51 2.0* -10.80 S; -39.62 W Cansanção BA
2020.11.09 16:59:59 1.8* -8.32 S; -36.05 W Caruaru PE
2020.11.09 13:15:52 2.2* -3.02 S; -40.4 W Camocim CE
2020.11.08 12:40:50 2.3* -5.32 S; -42.22 W Altos PI
2020.11.06 19:08:18 1.7* -5.70 S; -35.90 W Bento Fernandes RN
2020.11.04 04:04:00 2.0* -8.05 S; -35.19 W São Bento PE
2020.11.03 02:11:39 1.7* -14.02 S; -40.07 W Jequié BA
2020.11.02 11:00:05 1.7* -8.29 S; -36.00 W Caruaru PE
2020.11.01 01:03:16 2.4 -8.29 S; -36.05 W Caruaru PE
 
 
Boletim de eventos Sísmicos registrados pelo LabSis na região Nordeste em Dezembro de 2020 com magnitude maior ou igual a 1.50
 
 
Data Hora UTC Magnitude Coordenadas Local
2020.12.29 20:14:21 2.2* -14.84 S; -39.53 W Ibicarai BA
2020.12.29 03:48:12 2.2* -8.01 S; -35.05 W São Lourenço da Mata PE
2020.12.28 21:10:55 1.5* -4.10 S; -39.31 W Paramoti CE
2020.12.26 17:01:44 2.0* -14.09 S; -39.5 W Ipiaú BA
2020.12.26 00:18:38 1.7* -9.52 S; -40.26 W Juazeiro BA
2020.12.25 12:07:07 1.8* -3.98 S; -39.28 W Paramoti CE
2020.12.24 09:10:52 2.0* -8.26 S; -35.93 W Caruaru PE
2020.12.23 20:03:58 2.0* -8.47 S; -37.07 W Arcoverde PE
2020.12.23 14:39:00 1.6* -11.13 S; -40.43 W Jacobina BA
2020.12.22 18:39:25 1.5* -6.84 S; -36.52 W Parelhas RN
2020.12.22 14:46:41 1.5* -3.85 S; -40.49 W Sobral CE
2020.12.22 05:52:42 2.0* -14.12 S; -39.97 W Itagi BA
2020.12.21 21:08:52 2.5* -15.54 S; -40.35 W Macarani BA
2020.12.18 23:32:26 1.8* -9.49 S; -36.19 W Atalaia AL
2020.12.18 19:58:43 1.5* -7.13 S; -35.42 W Curinhém PB
2020.12.18 19:30:13 1.5* -3.80 S; -40.59 W Sobral CE
2020.12.15 22:21:50 2.0* -11.08 S; -40.63 W Jacobina BA
2020.12.09 02:19:08 3.0* -11.16 S; -40.54 W Jacobina BA
2020.12.09 02:07:52 3.2* -11.21 S; -40.52 W Jacobina BA
2020.12.08 03:22:27 1.6* -8.05 S; -35.17 W São Lourenço da Mata PE
2020.12.04 07:08:30 3.9* -3.09 S; -44.55 W Itapecuru-Mirim MA
2020.12.02 11:42:26 1.5* -6.79 S; -36.12 W Barra de Santa Rosa PB
2020.12.01 15:47:00 1.5* -13.06 S; -39.49 W São Miguel das Matas BA
2020.12.01 03:07:26 1.8* -4.55 S; -39.38 W Canindé CE
 
* Magnitude não revisada/preliminar
Obs.: A hora dos tremores está em UTC, são 3 horas a mais da hora local.